Observation data for Truscott on 02/14/2020      Previous  Date  Next       Current Mesonet Observations  Soil Data  Daily Summary Page  Observations in Plain Language
KTR1 140600Z 05007KT M03/M08 A3039 RMK A01 T10251078  RH  067%=      5-min Rain = 0
KTR1 140601Z 06007KT M03/M08 A3039 RMK A01 T10251077  RH  067%=      5-min Rain = 0
KTR1 140602Z 06006KT M03/M08 A3039 RMK A01 T10251076  RH  068%=      5-min Rain = 0
KTR1 140603Z 05008KT M03/M08 A3039 RMK A01 T10251076  RH  068%=      5-min Rain = 0
KTR1 140604Z 06007KT M03/M08 A3039 RMK A01 T10251077  RH  068%=      5-min Rain = 0
KTR1 140605Z 06007KT M03/M08 A3039 RMK A01 T10251075  RH  068%=      5-min Rain = 0
KTR1 140606Z 06006KT M03/M08 A304 RMK A01 T10251075  RH  068%=      5-min Rain = 0
KTR1 140607Z 05008KT M02/M08 A304 RMK A01 T10241075  RH  068%=      5-min Rain = 0
KTR1 140608Z 06008KT M03/M08 A304 RMK A01 T10251076  RH  068%=      5-min Rain = 0
KTR1 140609Z 05006KT M03/M08 A304 RMK A01 T10251077  RH  067%=      5-min Rain = 0
KTR1 140610Z 05007KT M02/M07 A304 RMK A01 T10241074  RH  069%=      5-min Rain = 0
KTR1 140611Z 05006KT M03/M08 A304 RMK A01 T10251075  RH  068%=      5-min Rain = 0
KTR1 140612Z 06007KT M03/M08 A304 RMK A01 T10251075  RH  068%=      5-min Rain = 0
KTR1 140613Z 05006KT M03/M08 A304 RMK A01 T10251075  RH  069%=      5-min Rain = 0
KTR1 140614Z 06006KT M03/M08 A304 RMK A01 T10251075  RH  068%=      5-min Rain = 0
KTR1 140615Z 05007KT M03/M08 A304 RMK A01 T10251075  RH  069%=      5-min Rain = 0
KTR1 140616Z 05007KT M03/M08 A304 RMK A01 T10251076  RH  068%=      5-min Rain = 0
KTR1 140617Z 06006KT M03/M08 A304 RMK A01 T10251075  RH  068%=      5-min Rain = 0
KTR1 140618Z 05007KT M03/M07 A304 RMK A01 T10251074  RH  069%=      5-min Rain = 0
KTR1 140619Z 05006KT M03/M08 A304 RMK A01 T10251076  RH  068%=      5-min Rain = 0
KTR1 140620Z 05007KT M03/M08 A304 RMK A01 T10251075  RH  068%=      5-min Rain = 0
KTR1 140621Z 05006KT M03/M07 A304 RMK A01 T10251074  RH  069%=      5-min Rain = 0
KTR1 140622Z 06007KT M03/M08 A304 RMK A01 T10251075  RH  069%=      5-min Rain = 0
KTR1 140623Z 05006KT M03/M07 A304 RMK A01 T10251074  RH  069%=      5-min Rain = 0
KTR1 140624Z 06006KT M03/M08 A304 RMK A01 T10251075  RH  069%=      5-min Rain = 0
KTR1 140625Z 06007KT M03/M07 A304 RMK A01 T10251074  RH  069%=      5-min Rain = 0
KTR1 140626Z 05008KT M03/M08 A304 RMK A01 T10251075  RH  069%=      5-min Rain = 0
KTR1 140627Z 05007KT M03/M08 A304 RMK A01 T10251076  RH  068%=      5-min Rain = 0
KTR1 140628Z 05006KT M03/M08 A304 RMK A01 T10251076  RH  068%=      5-min Rain = 0
KTR1 140629Z 05007KT M03/M08 A304 RMK A01 T10251077  RH  068%=      5-min Rain = 0
KTR1 140630Z 06007KT M03/M08 A3039 RMK A01 T10261077  RH  068%=      5-min Rain = 0
KTR1 140631Z 05007KT M03/M08 A3039 RMK A01 T10261076  RH  068%=      5-min Rain = 0
KTR1 140632Z 05006KT M03/M08 A3039 RMK A01 T10261076  RH  069%=      5-min Rain = 0
KTR1 140633Z 05007KT M03/M08 A3039 RMK A01 T10261075  RH  069%=      5-min Rain = 0
KTR1 140634Z 05008KT M03/M08 A304 RMK A01 T10261077  RH  068%=      5-min Rain = 0
KTR1 140635Z 05007KT M03/M08 A304 RMK A01 T10261077  RH  068%=      5-min Rain = 0
KTR1 140636Z 06007KT M03/M08 A304 RMK A01 T10261076  RH  068%=      5-min Rain = 0
KTR1 140637Z 05006KT M03/M08 A304 RMK A01 T10261076  RH  069%=      5-min Rain = 0
KTR1 140638Z 05007KT M03/M08 A304 RMK A01 T10271076  RH  069%=      5-min Rain = 0
KTR1 140639Z 05007KT M03/M08 A304 RMK A01 T10271077  RH  069%=      5-min Rain = 0
KTR1 140640Z 05006KT M03/M08 A304 RMK A01 T10271076  RH  069%=      5-min Rain = 0
KTR1 140641Z 06008KT M03/M08 A304 RMK A01 T10271075  RH  069%=      5-min Rain = 0
KTR1 140642Z 06007KT M03/M08 A304 RMK A01 T10271077  RH  069%=      5-min Rain = 0
KTR1 140643Z 06007KT M03/M08 A304 RMK A01 T10271076  RH  069%=      5-min Rain = 0
KTR1 140644Z 05006KT M03/M08 A3039 RMK A01 T10271076  RH  069%=      5-min Rain = 0
KTR1 140645Z 06007KT M03/M08 A3039 RMK A01 T10281075  RH  070%=      5-min Rain = 0
KTR1 140646Z 06006KT M03/M08 A3039 RMK A01 T10281076  RH  069%=      5-min Rain = 0
KTR1 140647Z 05007KT M03/M08 A304 RMK A01 T10281076  RH  070%=      5-min Rain = 0
KTR1 140648Z 05007KT M03/M08 A3039 RMK A01 T10281077  RH  069%=      5-min Rain = 0
KTR1 140649Z 06006KT M03/M08 A3039 RMK A01 T10281078  RH  069%=      5-min Rain = 0
KTR1 140650Z 05005KT M03/M08 A3039 RMK A01 T10281077  RH  069%=      5-min Rain = 0
KTR1 140651Z 06006KT M03/M08 A3039 RMK A01 T10281075  RH  070%=      5-min Rain = 0
KTR1 140652Z 06007KT M03/M08 A3039 RMK A01 T10281077  RH  069%=      5-min Rain = 0
KTR1 140653Z 06008KT M03/M08 A3039 RMK A01 T10281077  RH  069%=      5-min Rain = 0
KTR1 140654Z 06008KT M03/M08 A3039 RMK A01 T10281078  RH  069%=      5-min Rain = 0
KTR1 140655Z 06007KT M03/M08 A3039 RMK A01 T10281079  RH  068%=      5-min Rain = 0
KTR1 140656Z 06007KT M03/M08 A3039 RMK A01 T10281079  RH  068%=      5-min Rain = 0
KTR1 140657Z 06007KT M03/M08 A3039 RMK A01 T10281079  RH  068%=      5-min Rain = 0
KTR1 140658Z 06007KT M03/M08 A3039 RMK A01 T10281077  RH  069%=      5-min Rain = 0
KTR1 140659Z 06007KT M03/M08 A3039 RMK A01 T10281077  RH  069%=      5-min Rain = 0
KTR1 140700Z 06007KT M03/M08 A3039 RMK A01 T10281077  RH  069%=      5-min Rain = 0
KTR1 140701Z 06007KT M03/M08 A3039 RMK A01 T10281077  RH  069%=      5-min Rain = 0
KTR1 140702Z 06006KT M03/M08 A3039 RMK A01 T10281078  RH  069%=      5-min Rain = 0
KTR1 140703Z 06007KT M03/M08 A3039 RMK A01 T10281077  RH  069%=      5-min Rain = 0
KTR1 140704Z 06007KT M03/M08 A3039 RMK A01 T10281078  RH  069%=      5-min Rain = 0
KTR1 140705Z 06007KT M03/M08 A3039 RMK A01 T10281078  RH  069%=      5-min Rain = 0
KTR1 140706Z 06007KT M03/M08 A3039 RMK A01 T10291078  RH  069%=      5-min Rain = 0
KTR1 140707Z 05008KT M03/M08 A3039 RMK A01 T10281077  RH  069%=      5-min Rain = 0
KTR1 140708Z 06007KT M03/M08 A3039 RMK A01 T10291077  RH  069%=      5-min Rain = 0
KTR1 140709Z 05007KT M03/M08 A3039 RMK A01 T10291078  RH  069%=      5-min Rain = 0
KTR1 140710Z 06005KT M03/M08 A3039 RMK A01 T10291078  RH  069%=      5-min Rain = 0
KTR1 140711Z 05005KT M03/M08 A3039 RMK A01 T10291077  RH  070%=      5-min Rain = 0
KTR1 140712Z 05005KT M03/M08 A3039 RMK A01 T10291076  RH  070%=      5-min Rain = 0
KTR1 140713Z 06006KT M03/M08 A3039 RMK A01 T10291077  RH  070%=      5-min Rain = 0
KTR1 140714Z 06006KT M03/M08 A3039 RMK A01 T10291077  RH  070%=      5-min Rain = 0
KTR1 140715Z 06007KT M03/M08 A3039 RMK A01 T10291077  RH  070%=      5-min Rain = 0
KTR1 140716Z 05006KT M03/M08 A3039 RMK A01 T10291078  RH  069%=      5-min Rain = 0
KTR1 140717Z 06006KT M03/M08 A3039 RMK A01 T10291077  RH  070%=      5-min Rain = 0
KTR1 140718Z 06006KT M03/M08 A3039 RMK A01 T10291078  RH  069%=      5-min Rain = 0
KTR1 140719Z 05007KT M03/M08 A3039 RMK A01 T10291077  RH  069%=      5-min Rain = 0
KTR1 140720Z 05005KT M03/M08 A3039 RMK A01 T10291077  RH  069%=      5-min Rain = 0
KTR1 140721Z 06006KT M03/M08 A3039 RMK A01 T10291076  RH  070%=      5-min Rain = 0
KTR1 140722Z 06006KT M03/M08 A3039 RMK A01 T10291077  RH  070%=      5-min Rain = 0
KTR1 140723Z 06006KT M03/M08 A3039 RMK A01 T10291077  RH  070%=      5-min Rain = 0
KTR1 140724Z 06006KT M03/M08 A3039 RMK A01 T10291076  RH  070%=      5-min Rain = 0
KTR1 140725Z 05005KT M03/M08 A3039 RMK A01 T10301076  RH  070%=      5-min Rain = 0
KTR1 140726Z 05005KT M03/M08 A3039 RMK A01 T10301076  RH  070%=      5-min Rain = 0
KTR1 140727Z 05005KT M03/M08 A3039 RMK A01 T10301077  RH  070%=      5-min Rain = 0
KTR1 140728Z 04006KT M03/M08 A3039 RMK A01 T10301077  RH  070%=      5-min Rain = 0
KTR1 140729Z 05006KT M03/M08 A3039 RMK A01 T10301077  RH  070%=      5-min Rain = 0
KTR1 140730Z 04005KT M03/M08 A3039 RMK A01 T10301078  RH  069%=      5-min Rain = 0
KTR1 140731Z 04006KT M03/M08 A3039 RMK A01 T10301077  RH  070%=      5-min Rain = 0
KTR1 140732Z 05005KT M03/M08 A3039 RMK A01 T10301076  RH  070%=      5-min Rain = 0
KTR1 140733Z 04004KT M03/M08 A3039 RMK A01 T10301076  RH  070%=      5-min Rain = 0
KTR1 140734Z 04005KT M03/M08 A304 RMK A01 T10301076  RH  070%=      5-min Rain = 0
KTR1 140735Z 04005KT M03/M08 A304 RMK A01 T10301076  RH  071%=      5-min Rain = 0
KTR1 140736Z 04004KT M03/M08 A304 RMK A01 T10301076  RH  071%=      5-min Rain = 0
KTR1 140737Z 04005KT M03/M08 A3039 RMK A01 T10301076  RH  071%=      5-min Rain = 0
KTR1 140738Z 04005KT M03/M08 A3039 RMK A01 T10311076  RH  071%=      5-min Rain = 0
KTR1 140739Z 04004KT M03/M08 A3039 RMK A01 T10311076  RH  071%=      5-min Rain = 0
KTR1 140740Z 04004KT M03/M08 A3039 RMK A01 T10321076  RH  071%=      5-min Rain = 0
KTR1 140741Z 04004KT M03/M08 A3039 RMK A01 T10321075  RH  072%=      5-min Rain = 0
KTR1 140742Z 05004KT M03/M08 A3039 RMK A01 T10321076  RH  072%=      5-min Rain = 0
KTR1 140743Z 05004KT M03/M08 A3039 RMK A01 T10321075  RH  072%=      5-min Rain = 0
KTR1 140744Z 04004KT M03/M08 A3039 RMK A01 T10331076  RH  072%=      5-min Rain = 0
KTR1 140745Z 04004KT M03/M08 A3039 RMK A01 T10331075  RH  073%=      5-min Rain = 0
KTR1 140746Z 04003KT M03/M07 A304 RMK A01 T10331074  RH  073%=      5-min Rain = 0
KTR1 140747Z 04003KT M03/M07 A304 RMK A01 T10341074  RH  074%=      5-min Rain = 0
KTR1 140748Z 04004KT M03/M07 A304 RMK A01 T10341073  RH  074%=      5-min Rain = 0
KTR1 140749Z 04004KT M03/M08 A304 RMK A01 T10341075  RH  073%=      5-min Rain = 0
KTR1 140750Z 04004KT M03/M08 A304 RMK A01 T10341075  RH  074%=      5-min Rain = 0
KTR1 140751Z 04005KT M03/M07 A304 RMK A01 T10341074  RH  074%=      5-min Rain = 0
KTR1 140752Z 04004KT M04/M08 A304 RMK A01 T10351075  RH  073%=      5-min Rain = 0
KTR1 140753Z 04004KT M04/M07 A304 RMK A01 T10351074  RH  074%=      5-min Rain = 0
KTR1 140754Z 04004KT M03/M08 A304 RMK A01 T10341075  RH  074%=      5-min Rain = 0
KTR1 140755Z 04004KT M04/M08 A304 RMK A01 T10351075  RH  074%=      5-min Rain = 0
KTR1 140756Z 04004KT M04/M07 A304 RMK A01 T10351074  RH  074%=      5-min Rain = 0
KTR1 140757Z 04004KT M04/M07 A304 RMK A01 T10351074  RH  074%=      5-min Rain = 0
KTR1 140758Z 04004KT M04/M08 A304 RMK A01 T10351076  RH  074%=      5-min Rain = 0
KTR1 140759Z 04004KT M04/M08 A304 RMK A01 T10351075  RH  074%=      5-min Rain = 0
KTR1 140800Z 04004KT M04/M08 A304 RMK A01 T10351075  RH  074%=      5-min Rain = 0
KTR1 140801Z 04004KT M04/M08 A304 RMK A01 T10361076  RH  074%=      5-min Rain = 0
KTR1 140802Z 04004KT M04/M08 A304 RMK A01 T10361076  RH  074%=      5-min Rain = 0
KTR1 140803Z 04004KT M04/M08 A304 RMK A01 T10361076  RH  074%=      5-min Rain = 0
KTR1 140804Z 04005KT M04/M08 A304 RMK A01 T10361076  RH  074%=      5-min Rain = 0
KTR1 140805Z 04004KT M04/M08 A304 RMK A01 T10361076  RH  074%=      5-min Rain = 0
KTR1 140806Z 04004KT M04/M08 A304 RMK A01 T10361076  RH  074%=      5-min Rain = 0
KTR1 140807Z 04004KT M04/M08 A304 RMK A01 T10361077  RH  074%=      5-min Rain = 0
KTR1 140808Z 04003KT M04/M08 A304 RMK A01 T10361076  RH  074%=      5-min Rain = 0
KTR1 140809Z 04003KT M04/M08 A304 RMK A01 T10361076  RH  074%=      5-min Rain = 0
KTR1 140810Z 04003KT M04/M08 A304 RMK A01 T10361076  RH  074%=      5-min Rain = 0
KTR1 140811Z 04003KT M04/M08 A3041 RMK A01 T10371076  RH  074%=      5-min Rain = 0
KTR1 140812Z 04003KT M04/M08 A3041 RMK A01 T10361075  RH  074%=      5-min Rain = 0
KTR1 140813Z 04003KT M04/M08 A3041 RMK A01 T10371075  RH  075%=      5-min Rain = 0
KTR1 140814Z 04003KT M04/M08 A3041 RMK A01 T10371075  RH  075%=      5-min Rain = 0
KTR1 140815Z 05003KT M04/M08 A3041 RMK A01 T10381075  RH  075%=      5-min Rain = 0
KTR1 140816Z 04003KT M04/M08 A3041 RMK A01 T10371076  RH  075%=      5-min Rain = 0
KTR1 140817Z 04003KT M04/M08 A3041 RMK A01 T10371076  RH  075%=      5-min Rain = 0
KTR1 140818Z 04004KT M04/M08 A3041 RMK A01 T10381076  RH  075%=      5-min Rain = 0
KTR1 140819Z 05003KT M04/M08 A3041 RMK A01 T10381077  RH  075%=      5-min Rain = 0
KTR1 140820Z 05003KT M04/M08 A3041 RMK A01 T10381077  RH  074%=      5-min Rain = 0
KTR1 140821Z 04003KT M04/M08 A3041 RMK A01 T10381076  RH  075%=      5-min Rain = 0
KTR1 140822Z 05004KT M04/M08 A3041 RMK A01 T10381077  RH  074%=      5-min Rain = 0
KTR1 140823Z 05003KT M04/M08 A3041 RMK A01 T10381077  RH  074%=      5-min Rain = 0
KTR1 140824Z 04003KT M04/M08 A3041 RMK A01 T10381077  RH  074%=      5-min Rain = 0
KTR1 140825Z 05003KT M04/M08 A3041 RMK A01 T10381076  RH  074%=      5-min Rain = 0
KTR1 140826Z 05003KT M04/M08 A3041 RMK A01 T10371076  RH  074%=      5-min Rain = 0
KTR1 140827Z 05003KT M04/M08 A3041 RMK A01 T10381076  RH  075%=      5-min Rain = 0
KTR1 140828Z 05003KT M04/M08 A3041 RMK A01 T10381076  RH  075%=      5-min Rain = 0
KTR1 140829Z 05004KT M04/M08 A3041 RMK A01 T10381075  RH  076%=      5-min Rain = 0
KTR1 140830Z 05003KT M04/M08 A3041 RMK A01 T10391075  RH  076%=      5-min Rain = 0
KTR1 140831Z 05003KT M04/M08 A3041 RMK A01 T10391075  RH  076%=      5-min Rain = 0
KTR1 140832Z 05003KT M04/M08 A3041 RMK A01 T10391075  RH  076%=      5-min Rain = 0
KTR1 140833Z 05003KT M04/M08 A304 RMK A01 T10391075  RH  076%=      5-min Rain = 0
KTR1 140834Z 06003KT M04/M08 A304 RMK A01 T10391075  RH  076%=      5-min Rain = 0
KTR1 140835Z 05003KT M04/M07 A304 RMK A01 T10401074  RH  077%=      5-min Rain = 0
KTR1 140836Z 06004KT M04/M07 A3041 RMK A01 T10401073  RH  077%=      5-min Rain = 0
KTR1 140837Z 05003KT M04/M07 A3041 RMK A01 T10401074  RH  078%=      5-min Rain = 0
KTR1 140838Z 05003KT M04/M07 A3041 RMK A01 T10401073  RH  078%=      5-min Rain = 0
KTR1 140839Z 05003KT M04/M07 A3041 RMK A01 T10401073  RH  078%=      5-min Rain = 0
KTR1 140840Z 05003KT M04/M07 A3041 RMK A01 T10401074  RH  078%=      5-min Rain = 0
KTR1 140841Z 05003KT M04/M07 A3041 RMK A01 T10401074  RH  077%=      5-min Rain = 0
KTR1 140842Z 05003KT M04/M07 A3041 RMK A01 T10401074  RH  077%=      5-min Rain = 0
KTR1 140843Z 05003KT M04/M07 A3041 RMK A01 T10401074  RH  077%=      5-min Rain = 0
KTR1 140844Z 05003KT M04/M07 A3041 RMK A01 T10401074  RH  077%=      5-min Rain = 0
KTR1 140845Z 05003KT M04/M07 A3041 RMK A01 T10401074  RH  077%=      5-min Rain = 0
KTR1 140846Z 05003KT M04/M07 A3041 RMK A01 T10401073  RH  078%=      5-min Rain = 0
KTR1 140847Z 05003KT M04/M07 A3041 RMK A01 T10401072  RH  079%=      5-min Rain = 0
KTR1 140848Z 04003KT M04/M07 A3041 RMK A01 T10401071  RH  079%=      5-min Rain = 0
KTR1 140849Z 05003KT M04/M07 A3041 RMK A01 T10411071  RH  079%=      5-min Rain = 0
KTR1 140850Z 04003KT M04/M07 A3041 RMK A01 T10411071  RH  080%=      5-min Rain = 0
KTR1 140851Z 04003KT M04/M07 A3041 RMK A01 T10411070  RH  080%=      5-min Rain = 0
KTR1 140852Z 04003KT M04/M07 A3041 RMK A01 T10411070  RH  080%=      5-min Rain = 0
KTR1 140853Z 04003KT M04/M07 A3041 RMK A01 T10411069  RH  081%=      5-min Rain = 0
KTR1 140854Z 04003KT M04/M07 A304 RMK A01 T10411069  RH  081%=      5-min Rain = 0
KTR1 140855Z 04003KT M04/M07 A3041 RMK A01 T10421069  RH  081%=      5-min Rain = 0
KTR1 140856Z 04003KT M04/M07 A3041 RMK A01 T10421069  RH  081%=      5-min Rain = 0
KTR1 140857Z 04003KT M04/M07 A3041 RMK A01 T10421069  RH  081%=      5-min Rain = 0
KTR1 140858Z 04003KT M04/M07 A3041 RMK A01 T10421070  RH  081%=      5-min Rain = 0
KTR1 140859Z 04003KT M04/M07 A304 RMK A01 T10421070  RH  081%=      5-min Rain = 0
KTR1 140900Z 04004KT M04/M07 A304 RMK A01 T10421069  RH  081%=      5-min Rain = 0
KTR1 140901Z 04004KT M04/M07 A304 RMK A01 T10421070  RH  081%=      5-min Rain = 0
KTR1 140902Z 04004KT M04/M07 A304 RMK A01 T10421071  RH  081%=      5-min Rain = 0
KTR1 140903Z 04003KT M04/M07 A304 RMK A01 T10421071  RH  080%=      5-min Rain = 0
KTR1 140904Z 04003KT M04/M07 A304 RMK A01 T10421071  RH  081%=      5-min Rain = 0
KTR1 140905Z 04004KT M04/M07 A304 RMK A01 T10421071  RH  080%=      5-min Rain = 0
KTR1 140906Z 04004KT M04/M07 A304 RMK A01 T10431073  RH  080%=      5-min Rain = 0
KTR1 140907Z 04004KT M04/M07 A304 RMK A01 T10431072  RH  080%=      5-min Rain = 0
KTR1 140908Z 04003KT M04/M07 A3041 RMK A01 T10431072  RH  080%=      5-min Rain = 0
KTR1 140909Z 04003KT M04/M07 A3041 RMK A01 T10431072  RH  080%=      5-min Rain = 0
KTR1 140910Z 04003KT M04/M07 A3041 RMK A01 T10421072  RH  080%=      5-min Rain = 0
KTR1 140911Z 03003KT M04/M07 A3041 RMK A01 T10421072  RH  079%=      5-min Rain = 0
KTR1 140912Z 04003KT M04/M07 A304 RMK A01 T10421073  RH  079%=      5-min Rain = 0
KTR1 140913Z 04004KT M04/M07 A304 RMK A01 T10421073  RH  079%=      5-min Rain = 0
KTR1 140914Z 04004KT M04/M07 A304 RMK A01 T10421073  RH  079%=      5-min Rain = 0
KTR1 140915Z 04004KT M04/M07 A304 RMK A01 T10421073  RH  079%=      5-min Rain = 0
KTR1 140916Z 04004KT M04/M07 A304 RMK A01 T10421073  RH  079%=      5-min Rain = 0
KTR1 140917Z 04004KT M04/M07 A304 RMK A01 T10421072  RH  079%=      5-min Rain = 0
KTR1 140918Z 04005KT M04/M07 A304 RMK A01 T10421073  RH  079%=      5-min Rain = 0
KTR1 140919Z 04004KT M04/M07 A304 RMK A01 T10421073  RH  079%=      5-min Rain = 0
KTR1 140920Z 04004KT M04/M07 A304 RMK A01 T10421073  RH  079%=      5-min Rain = 0
KTR1 140921Z 04004KT M04/M07 A304 RMK A01 T10421073  RH  079%=      5-min Rain = 0
KTR1 140922Z 04004KT M04/M07 A304 RMK A01 T10421073  RH  079%=      5-min Rain = 0
KTR1 140923Z 04004KT M04/M07 A304 RMK A01 T10421073  RH  079%=      5-min Rain = 0
KTR1 140924Z 04004KT M04/M07 A304 RMK A01 T10431073  RH  079%=      5-min Rain = 0
KTR1 140925Z 04004KT M04/M07 A304 RMK A01 T10421073  RH  079%=      5-min Rain = 0
KTR1 140926Z 04004KT M04/M07 A304 RMK A01 T10421073  RH  079%=      5-min Rain = 0
KTR1 140927Z 04004KT M04/M07 A304 RMK A01 T10431073  RH  079%=      5-min Rain = 0
KTR1 140928Z 04004KT M04/M07 A304 RMK A01 T10421073  RH  079%=      5-min Rain = 0
KTR1 140929Z 04004KT M04/M07 A304 RMK A01 T10421073  RH  079%=      5-min Rain = 0
KTR1 140930Z 04004KT M04/M07 A304 RMK A01 T10431073  RH  079%=      5-min Rain = 0
KTR1 140931Z 04004KT M04/M07 A304 RMK A01 T10421073  RH  080%=      5-min Rain = 0
KTR1 140932Z 04004KT M04/M07 A304 RMK A01 T10431072  RH  080%=      5-min Rain = 0
KTR1 140933Z 04005KT M04/M07 A304 RMK A01 T10431072  RH  080%=      5-min Rain = 0
KTR1 140934Z 04004KT M04/M07 A304 RMK A01 T10431072  RH  080%=      5-min Rain = 0
KTR1 140935Z 04004KT M04/M07 A304 RMK A01 T10431072  RH  080%=      5-min Rain = 0
KTR1 140936Z 03004KT M04/M07 A304 RMK A01 T10431072  RH  080%=      5-min Rain = 0
KTR1 140937Z 03004KT M04/M07 A304 RMK A01 T10431072  RH  081%=      5-min Rain = 0
KTR1 140938Z 04004KT M04/M07 A304 RMK A01 T10441072  RH  081%=      5-min Rain = 0
KTR1 140939Z 04004KT M04/M07 A304 RMK A01 T10441073  RH  080%=      5-min Rain = 0
KTR1 140940Z 04004KT M04/M07 A304 RMK A01 T10441073  RH  080%=      5-min Rain = 0
KTR1 140941Z 04004KT M04/M07 A304 RMK A01 T10441072  RH  081%=      5-min Rain = 0
KTR1 140942Z 04004KT M04/M07 A304 RMK A01 T10441072  RH  081%=      5-min Rain = 0
KTR1 140943Z 04004KT M04/M07 A304 RMK A01 T10441071  RH  081%=      5-min Rain = 0
KTR1 140944Z 04004KT M04/M07 A304 RMK A01 T10441072  RH  081%=      5-min Rain = 0
KTR1 140945Z 03004KT M05/M07 A304 RMK A01 T10451073  RH  081%=      5-min Rain = 0
KTR1 140946Z 04004KT M05/M07 A304 RMK A01 T10451072  RH  081%=      5-min Rain = 0
KTR1 140947Z 04004KT M05/M07 A304 RMK A01 T10451073  RH  081%=      5-min Rain = 0
KTR1 140948Z 04004KT M05/M07 A304 RMK A01 T10451072  RH  081%=      5-min Rain = 0
KTR1 140949Z 04004KT M05/M07 A304 RMK A01 T10451072  RH  081%=      5-min Rain = 0
KTR1 140950Z 04004KT M05/M07 A304 RMK A01 T10451072  RH  081%=      5-min Rain = 0
KTR1 140951Z 04004KT M05/M07 A304 RMK A01 T10451072  RH  081%=      5-min Rain = 0
KTR1 140952Z 04004KT M05/M07 A304 RMK A01 T10451072  RH  082%=      5-min Rain = 0
KTR1 140953Z 04004KT M05/M07 A304 RMK A01 T10451072  RH  082%=      5-min Rain = 0
KTR1 140954Z 03004KT M05/M07 A304 RMK A01 T10461072  RH  082%=      5-min Rain = 0
KTR1 140955Z 03004KT M05/M07 A304 RMK A01 T10451072  RH  082%=      5-min Rain = 0
KTR1 140956Z 03004KT M05/M07 A304 RMK A01 T10461071  RH  082%=      5-min Rain = 0
KTR1 140957Z 03004KT M05/M07 A304 RMK A01 T10461071  RH  082%=      5-min Rain = 0
KTR1 140958Z 04004KT M05/M07 A304 RMK A01 T10461071  RH  082%=      5-min Rain = 0
KTR1 140959Z 03004KT M05/M07 A304 RMK A01 T10461071  RH  082%=      5-min Rain = 0
KTR1 141000Z 03005KT M05/M07 A304 RMK A01 T10461072  RH  082%=      5-min Rain = 0
KTR1 141001Z 04004KT M05/M07 A304 RMK A01 T10461072  RH  082%=      5-min Rain = 0
KTR1 141002Z 04004KT M05/M07 A304 RMK A01 T10461072  RH  082%=      5-min Rain = 0
KTR1 141003Z 04004KT M05/M07 A304 RMK A01 T10461073  RH  081%=      5-min Rain = 0
KTR1 141004Z 04004KT M05/M07 A304 RMK A01 T10451073  RH  081%=      5-min Rain = 0
KTR1 141005Z 04004KT M05/M07 A304 RMK A01 T10461074  RH  081%=      5-min Rain = 0
KTR1 141006Z 04004KT M05/M07 A3041 RMK A01 T10461074  RH  081%=      5-min Rain = 0
KTR1 141007Z 04004KT M05/M07 A3041 RMK A01 T10461073  RH  081%=      5-min Rain = 0
KTR1 141008Z 04004KT M05/M07 A3041 RMK A01 T10461073  RH  081%=      5-min Rain = 0
KTR1 141009Z 04004KT M05/M07 A3041 RMK A01 T10451073  RH  081%=      5-min Rain = 0
KTR1 141010Z 04004KT M05/M07 A3041 RMK A01 T10461073  RH  081%=      5-min Rain = 0
KTR1 141011Z 04004KT M05/M07 A3041 RMK A01 T10461073  RH  081%=      5-min Rain = 0
KTR1 141012Z 04004KT M05/M07 A3041 RMK A01 T10461074  RH  081%=      5-min Rain = 0
KTR1 141013Z 04004KT M05/M07 A3041 RMK A01 T10461073  RH  081%=      5-min Rain = 0
KTR1 141014Z 04004KT M05/M07 A3041 RMK A01 T10461073  RH  081%=      5-min Rain = 0
KTR1 141015Z 04004KT M05/M07 A3041 RMK A01 T10461074  RH  081%=      5-min Rain = 0
KTR1 141016Z 04004KT M05/M07 A3041 RMK A01 T10461073  RH  081%=      5-min Rain = 0
KTR1 141017Z 04004KT M05/M07 A3041 RMK A01 T10461073  RH  081%=      5-min Rain = 0
KTR1 141018Z 03004KT M05/M07 A3041 RMK A01 T10461074  RH  081%=      5-min Rain = 0
KTR1 141019Z 03003KT M05/M07 A3041 RMK A01 T10461074  RH  081%=      5-min Rain = 0
KTR1 141020Z 03004KT M05/M07 A3041 RMK A01 T10461074  RH  081%=      5-min Rain = 0
KTR1 141021Z 03003KT M05/M07 A3041 RMK A01 T10461074  RH  081%=      5-min Rain = 0
KTR1 141022Z 04003KT M05/M07 A3041 RMK A01 T10461074  RH  081%=      5-min Rain = 0
KTR1 141023Z 03003KT M05/M07 A3041 RMK A01 T10461074  RH  081%=      5-min Rain = 0
KTR1 141024Z 03003KT M05/M07 A3041 RMK A01 T10461074  RH  081%=      5-min Rain = 0
KTR1 141025Z 03003KT M05/M07 A3041 RMK A01 T10461074  RH  081%=      5-min Rain = 0
KTR1 141026Z 03003KT M05/M07 A3041 RMK A01 T10461074  RH  081%=      5-min Rain = 0
KTR1 141027Z 03003KT M05/M07 A3041 RMK A01 T10461073  RH  081%=      5-min Rain = 0
KTR1 141028Z 04003KT M05/M07 A3041 RMK A01 T10471074  RH  081%=      5-min Rain = 0
KTR1 141029Z 03003KT M05/M08 A3041 RMK A01 T10471075  RH  081%=      5-min Rain = 0
KTR1 141030Z 03004KT M05/M08 A3041 RMK A01 T10461075  RH  081%=      5-min Rain = 0
KTR1 141031Z 04003KT M05/M08 A3041 RMK A01 T10471075  RH  081%=      5-min Rain = 0
KTR1 141032Z 03003KT M05/M07 A3041 RMK A01 T10471074  RH  081%=      5-min Rain = 0
KTR1 141033Z 03003KT M05/M07 A3041 RMK A01 T10461074  RH  081%=      5-min Rain = 0
KTR1 141034Z 03003KT M05/M07 A3041 RMK A01 T10471074  RH  081%=      5-min Rain = 0
KTR1 141035Z 03003KT M05/M07 A3041 RMK A01 T10471074  RH  082%=      5-min Rain = 0
KTR1 141036Z 03003KT M05/M07 A3041 RMK A01 T10471074  RH  082%=      5-min Rain = 0
KTR1 141037Z 03003KT M05/M07 A3041 RMK A01 T10471074  RH  082%=      5-min Rain = 0
KTR1 141038Z 03003KT M05/M07 A3041 RMK A01 T10471073  RH  082%=      5-min Rain = 0
KTR1 141039Z 03003KT M05/M07 A3041 RMK A01 T10471072  RH  083%=      5-min Rain = 0
KTR1 141040Z 03003KT M05/M07 A3041 RMK A01 T10471072  RH  083%=      5-min Rain = 0
KTR1 141041Z 02003KT M05/M07 A3041 RMK A01 T10481072  RH  083%=      5-min Rain = 0
KTR1 141042Z 03003KT M05/M07 A3041 RMK A01 T10471071  RH  083%=      5-min Rain = 0
KTR1 141043Z 03003KT M05/M07 A3041 RMK A01 T10481072  RH  084%=      5-min Rain = 0
KTR1 141044Z 03003KT M05/M07 A3041 RMK A01 T10481072  RH  084%=      5-min Rain = 0
KTR1 141045Z 03003KT M05/M07 A3041 RMK A01 T10481071  RH  084%=      5-min Rain = 0
KTR1 141046Z 03003KT M05/M07 A3041 RMK A01 T10481071  RH  084%=      5-min Rain = 0
KTR1 141047Z 03003KT M05/M07 A3041 RMK A01 T10481071  RH  084%=      5-min Rain = 0
KTR1 141048Z 02002KT M05/M07 A3041 RMK A01 T10481070  RH  084%=      5-min Rain = 0
KTR1 141049Z 02002KT M05/M07 A3041 RMK A01 T10481071  RH  084%=      5-min Rain = 0
KTR1 141050Z 01002KT M05/M07 A3041 RMK A01 T10481070  RH  085%=      5-min Rain = 0
KTR1 141051Z 01002KT M05/M07 A3041 RMK A01 T10491070  RH  085%=      5-min Rain = 0
KTR1 141052Z 01002KT M05/M07 A3041 RMK A01 T10491070  RH  085%=      5-min Rain = 0
KTR1 141053Z 00002KT M05/M07 A3041 RMK A01 T10491071  RH  085%=      5-min Rain = 0
KTR1 141054Z 01002KT M05/M07 A3041 RMK A01 T10501072  RH  085%=      5-min Rain = 0
KTR1 141055Z 01003KT M05/M07 A3042 RMK A01 T10511073  RH  084%=      5-min Rain = 0
KTR1 141056Z 01003KT M05/M07 A3042 RMK A01 T10511073  RH  084%=      5-min Rain = 0
KTR1 141057Z 01003KT M05/M07 A3042 RMK A01 T10521074  RH  084%=      5-min Rain = 0
KTR1 141058Z 01003KT M05/M07 A3042 RMK A01 T10521074  RH  085%=      5-min Rain = 0
KTR1 141059Z 01003KT M05/M07 A3042 RMK A01 T10511073  RH  085%=      5-min Rain = 0
KTR1 141100Z 00003KT M05/M07 A3042 RMK A01 T10521073  RH  085%=      5-min Rain = 0
KTR1 141101Z 01003KT M05/M07 A3042 RMK A01 T10521072  RH  086%=      5-min Rain = 0
KTR1 141102Z 01003KT M05/M07 A3042 RMK A01 T10521073  RH  085%=      5-min Rain = 0
KTR1 141103Z 02003KT M05/M07 A3042 RMK A01 T10511074  RH  084%=      5-min Rain = 0
KTR1 141104Z 01003KT M05/M08 A3042 RMK A01 T10511075  RH  084%=      5-min Rain = 0
KTR1 141105Z 02003KT M05/M08 A3042 RMK A01 T10501075  RH  083%=      5-min Rain = 0
KTR1 141106Z 02003KT M05/M08 A3042 RMK A01 T10501075  RH  083%=      5-min Rain = 0
KTR1 141107Z 02003KT M05/M08 A3042 RMK A01 T10501076  RH  082%=      5-min Rain = 0
KTR1 141108Z 02003KT M05/M08 A3042 RMK A01 T10501076  RH  082%=      5-min Rain = 0
KTR1 141109Z 01003KT M05/M08 A3042 RMK A01 T10501075  RH  082%=      5-min Rain = 0
KTR1 141110Z 02003KT M05/M08 A3042 RMK A01 T10501075  RH  083%=      5-min Rain = 0
KTR1 141111Z 02003KT M05/M08 A3042 RMK A01 T10501075  RH  083%=      5-min Rain = 0
KTR1 141112Z 01003KT M05/M08 A3042 RMK A01 T10501075  RH  083%=      5-min Rain = 0
KTR1 141113Z 01002KT M05/M08 A3042 RMK A01 T10501076  RH  082%=      5-min Rain = 0
KTR1 141114Z 01002KT M05/M08 A3042 RMK A01 T10501076  RH  082%=      5-min Rain = 0
KTR1 141115Z 02003KT M05/M08 A3042 RMK A01 T10501076  RH  083%=      5-min Rain = 0
KTR1 141116Z 01002KT M05/M08 A3042 RMK A01 T10501075  RH  083%=      5-min Rain = 0
KTR1 141117Z 01003KT M05/M08 A3042 RMK A01 T10501075  RH  083%=      5-min Rain = 0
KTR1 141118Z 01002KT M05/M07 A3042 RMK A01 T10501074  RH  083%=      5-min Rain = 0
KTR1 141119Z 01003KT M05/M07 A3042 RMK A01 T10511074  RH  084%=      5-min Rain = 0
KTR1 141120Z 02003KT M05/M07 A3042 RMK A01 T10511074  RH  084%=      5-min Rain = 0
KTR1 141121Z 02003KT M05/M07 A3042 RMK A01 T10511074  RH  084%=      5-min Rain = 0
KTR1 141122Z 02003KT M05/M07 A3042 RMK A01 T10501074  RH  084%=      5-min Rain = 0
KTR1 141123Z 01003KT M05/M07 A3042 RMK A01 T10511074  RH  084%=      5-min Rain = 0
KTR1 141124Z 01003KT M05/M07 A3042 RMK A01 T10511074  RH  084%=      5-min Rain = 0
KTR1 141125Z 01003KT M05/M07 A3042 RMK A01 T10511074  RH  084%=      5-min Rain = 0
KTR1 141126Z 01004KT M05/M07 A3042 RMK A01 T10511074  RH  084%=      5-min Rain = 0
KTR1 141127Z 01003KT M05/M07 A3042 RMK A01 T10511074  RH  084%=      5-min Rain = 0
KTR1 141128Z 01003KT M05/M07 A3042 RMK A01 T10511074  RH  084%=      5-min Rain = 0
KTR1 141129Z 01003KT M05/M07 A3042 RMK A01 T10511074  RH  084%=      5-min Rain = 0
KTR1 141130Z 01003KT M05/M07 A3042 RMK A01 T10511074  RH  084%=      5-min Rain = 0
KTR1 141131Z 01003KT M05/M07 A3042 RMK A01 T10511074  RH  084%=      5-min Rain = 0
KTR1 141132Z 01003KT M05/M07 A3042 RMK A01 T10511074  RH  084%=      5-min Rain = 0
KTR1 141133Z 01003KT M05/M07 A3042 RMK A01 T10511074  RH  084%=      5-min Rain = 0
KTR1 141134Z 01003KT M05/M07 A3042 RMK A01 T10511074  RH  084%=      5-min Rain = 0
KTR1 141135Z 01004KT M05/M07 A3042 RMK A01 T10511074  RH  084%=      5-min Rain = 0
KTR1 141136Z 02004KT M05/M07 A3042 RMK A01 T10511074  RH  084%=      5-min Rain = 0
KTR1 141137Z 02004KT M05/M07 A3042 RMK A01 T10511073  RH  084%=      5-min Rain = 0
KTR1 141138Z 02004KT M05/M07 A3042 RMK A01 T10511074  RH  084%=      5-min Rain = 0
KTR1 141139Z 02004KT M05/M07 A3042 RMK A01 T10511074  RH  084%=      5-min Rain = 0
KTR1 141140Z 02004KT M05/M07 A3042 RMK A01 T10511074  RH  084%=      5-min Rain = 0
KTR1 141141Z 02004KT M05/M07 A3042 RMK A01 T10511074  RH  084%=      5-min Rain = 0
KTR1 141142Z 02004KT M05/M08 A3042 RMK A01 T10511075  RH  083%=      5-min Rain = 0
KTR1 141143Z 02004KT M05/M08 A3042 RMK A01 T10511075  RH  083%=      5-min Rain = 0
KTR1 141144Z 02004KT M05/M08 A3042 RMK A01 T10511075  RH  083%=      5-min Rain = 0
KTR1 141145Z 02004KT M05/M08 A3042 RMK A01 T10511075  RH  083%=      5-min Rain = 0
KTR1 141146Z 02004KT M05/M08 A3042 RMK A01 T10511076  RH  083%=      5-min Rain = 0
KTR1 141147Z 02004KT M05/M08 A3042 RMK A01 T10511075  RH  083%=      5-min Rain = 0
KTR1 141148Z 02004KT M05/M08 A3042 RMK A01 T10511075  RH  083%=      5-min Rain = 0
KTR1 141149Z 02004KT M05/M07 A3042 RMK A01 T10511074  RH  084%=      5-min Rain = 0
KTR1 141150Z 02004KT M05/M07 A3042 RMK A01 T10511074  RH  084%=      5-min Rain = 0
KTR1 141151Z 02004KT M05/M07 A3042 RMK A01 T10511074  RH  084%=      5-min Rain = 0
KTR1 141152Z 02004KT M05/M07 A3042 RMK A01 T10511073  RH  084%=      5-min Rain = 0
KTR1 141153Z 02004KT M05/M07 A3042 RMK A01 T10511073  RH  085%=      5-min Rain = 0
KTR1 141154Z 03004KT M05/M07 A3042 RMK A01 T10511073  RH  085%=      5-min Rain = 0
KTR1 141155Z 03004KT M05/M07 A3042 RMK A01 T10511073  RH  085%=      5-min Rain = 0
KTR1 141156Z 03004KT M05/M07 A3042 RMK A01 T10511073  RH  084%=      5-min Rain = 0
KTR1 141157Z 03004KT M05/M07 A3042 RMK A01 T10511073  RH  085%=      5-min Rain = 0
KTR1 141158Z 03004KT M05/M07 A3042 RMK A01 T10511073  RH  084%=      5-min Rain = 0
KTR1 141159Z 03003KT M05/M07 A3042 RMK A01 T10511073  RH  084%=      5-min Rain = 0
KTR1 141200Z 03004KT M05/M07 A3042 RMK A01 T10511073  RH  085%=      5-min Rain = 0
KTR1 141201Z 03004KT M05/M07 A3042 RMK A01 T10511073  RH  085%=      5-min Rain = 0
KTR1 141202Z 03004KT M05/M07 A3042 RMK A01 T10511073  RH  085%=      5-min Rain = 0
KTR1 141203Z 03004KT M05/M07 A3042 RMK A01 T10511073  RH  084%=      5-min Rain = 0
KTR1 141204Z 03005KT M05/M07 A3042 RMK A01 T10511074  RH  084%=      5-min Rain = 0
KTR1 141205Z 03004KT M05/M07 A3042 RMK A01 T10511074  RH  084%=      5-min Rain = 0
KTR1 141206Z 03004KT M05/M07 A3042 RMK A01 T10511074  RH  084%=      5-min Rain = 0
KTR1 141207Z 03004KT M05/M08 A3042 RMK A01 T10511075  RH  084%=      5-min Rain = 0
KTR1 141208Z 03004KT M05/M07 A3042 RMK A01 T10511074  RH  084%=      5-min Rain = 0
KTR1 141209Z 03004KT M05/M08 A3042 RMK A01 T10511075  RH  083%=      5-min Rain = 0
KTR1 141210Z 03004KT M05/M08 A3042 RMK A01 T10511076  RH  083%=      5-min Rain = 0
KTR1 141211Z 03004KT M05/M08 A3042 RMK A01 T10511076  RH  083%=      5-min Rain = 0
KTR1 141212Z 03004KT M05/M08 A3042 RMK A01 T10511077  RH  082%=      5-min Rain = 0
KTR1 141213Z 03004KT M05/M08 A3042 RMK A01 T10511077  RH  082%=      5-min Rain = 0
KTR1 141214Z 03004KT M05/M08 A3042 RMK A01 T10511077  RH  082%=      5-min Rain = 0
KTR1 141215Z 03004KT M05/M08 A3042 RMK A01 T10511077  RH  082%=      5-min Rain = 0
KTR1 141216Z 03004KT M05/M08 A3042 RMK A01 T10521077  RH  082%=      5-min Rain = 0
KTR1 141217Z 03004KT M05/M08 A3042 RMK A01 T10511078  RH  082%=      5-min Rain = 0
KTR1 141218Z 04004KT M05/M08 A3042 RMK A01 T10521078  RH  082%=      5-min Rain = 0
KTR1 141219Z 03004KT M05/M08 A3042 RMK A01 T10511077  RH  082%=      5-min Rain = 0
KTR1 141220Z 03004KT M05/M08 A3042 RMK A01 T10521077  RH  082%=      5-min Rain = 0
KTR1 141221Z 03004KT M05/M08 A3042 RMK A01 T10521077  RH  082%=      5-min Rain = 0
KTR1 141222Z 03004KT M05/M08 A3042 RMK A01 T10521077  RH  082%=      5-min Rain = 0
KTR1 141223Z 03004KT M05/M08 A3042 RMK A01 T10521077  RH  082%=      5-min Rain = 0
KTR1 141224Z 03004KT M05/M08 A3042 RMK A01 T10521077  RH  083%=      5-min Rain = 0
KTR1 141225Z 03004KT M05/M08 A3042 RMK A01 T10521077  RH  083%=      5-min Rain = 0
KTR1 141226Z 04004KT M05/M08 A3042 RMK A01 T10521077  RH  083%=      5-min Rain = 0
KTR1 141227Z 03004KT M05/M08 A3042 RMK A01 T10531077  RH  083%=      5-min Rain = 0
KTR1 141228Z 03004KT M05/M08 A3042 RMK A01 T10521077  RH  083%=      5-min Rain = 0
KTR1 141229Z 03004KT M05/M08 A3042 RMK A01 T10521077  RH  083%=      5-min Rain = 0
KTR1 141230Z 04004KT M05/M08 A3042 RMK A01 T10531077  RH  083%=      5-min Rain = 0
KTR1 141231Z 03004KT M05/M08 A3042 RMK A01 T10531077  RH  083%=      5-min Rain = 0
KTR1 141232Z 03004KT M05/M08 A3042 RMK A01 T10531077  RH  083%=      5-min Rain = 0
KTR1 141233Z 03004KT M05/M08 A3042 RMK A01 T10531077  RH  084%=      5-min Rain = 0
KTR1 141234Z 03003KT M05/M08 A3042 RMK A01 T10531076  RH  084%=      5-min Rain = 0
KTR1 141235Z 03003KT M05/M08 A3042 RMK A01 T10531076  RH  084%=      5-min Rain = 0
KTR1 141236Z 03003KT M05/M08 A3042 RMK A01 T10531076  RH  084%=      5-min Rain = 0
KTR1 141237Z 03004KT M05/M08 A3042 RMK A01 T10531075  RH  084%=      5-min Rain = 0
KTR1 141238Z 03004KT M05/M08 A3042 RMK A01 T10531076  RH  084%=      5-min Rain = 0
KTR1 141239Z 03004KT M05/M08 A3042 RMK A01 T10531076  RH  084%=      5-min Rain = 0
KTR1 141240Z 03004KT M05/M08 A3042 RMK A01 T10531075  RH  084%=      5-min Rain = 0
KTR1 141241Z 03003KT M05/M08 A3042 RMK A01 T10531075  RH  085%=      5-min Rain = 0
KTR1 141242Z 03003KT M05/M08 A3042 RMK A01 T10531076  RH  084%=      5-min Rain = 0
KTR1 141243Z 03003KT M05/M08 A3042 RMK A01 T10531075  RH  084%=      5-min Rain = 0
KTR1 141244Z 03003KT M05/M08 A3042 RMK A01 T10531075  RH  085%=      5-min Rain = 0
KTR1 141245Z 03003KT M05/M08 A3042 RMK A01 T10531076  RH  084%=      5-min Rain = 0
KTR1 141246Z 03003KT M05/M08 A3042 RMK A01 T10541076  RH  084%=      5-min Rain = 0
KTR1 141247Z 03003KT M05/M08 A3042 RMK A01 T10541076  RH  085%=      5-min Rain = 0
KTR1 141248Z 03003KT M05/M08 A3042 RMK A01 T10541075  RH  085%=      5-min Rain = 0
KTR1 141249Z 03003KT M05/M08 A3042 RMK A01 T10541075  RH  085%=      5-min Rain = 0
KTR1 141250Z 03003KT M05/M08 A3042 RMK A01 T10541075  RH  085%=      5-min Rain = 0
KTR1 141251Z 03003KT M05/M07 A3042 RMK A01 T10541074  RH  085%=      5-min Rain = 0
KTR1 141252Z 03003KT M05/M07 A3042 RMK A01 T10541074  RH  085%=      5-min Rain = 0
KTR1 141253Z 04003KT M05/M07 A3042 RMK A01 T10541074  RH  085%=      5-min Rain = 0
KTR1 141254Z 04004KT M05/M08 A3042 RMK A01 T10541075  RH  085%=      5-min Rain = 0
KTR1 141255Z 04004KT M05/M08 A3042 RMK A01 T10541075  RH  085%=      5-min Rain = 0
KTR1 141256Z 04004KT M05/M08 A3042 RMK A01 T10541075  RH  085%=      5-min Rain = 0
KTR1 141257Z 04004KT M05/M08 A3042 RMK A01 T10541075  RH  085%=      5-min Rain = 0
KTR1 141258Z 04003KT M05/M08 A3042 RMK A01 T10541075  RH  085%=      5-min Rain = 0
KTR1 141259Z 04003KT M05/M08 A3042 RMK A01 T10541075  RH  085%=      5-min Rain = 0
KTR1 141300Z 04003KT M05/M08 A3042 RMK A01 T10541075  RH  085%=      5-min Rain = 0
KTR1 141301Z 04003KT M05/M08 A3042 RMK A01 T10541075  RH  085%=      5-min Rain = 0
KTR1 141302Z 04003KT M05/M07 A3042 RMK A01 T10541074  RH  086%=      5-min Rain = 0
KTR1 141303Z 03003KT M05/M07 A3042 RMK A01 T10541074  RH  085%=      5-min Rain = 0
KTR1 141304Z 03003KT M05/M07 A3042 RMK A01 T10541074  RH  085%=      5-min Rain = 0
KTR1 141305Z 04003KT M05/M07 A3042 RMK A01 T10531074  RH  086%=      5-min Rain = 0
KTR1 141306Z 03003KT M05/M07 A3042 RMK A01 T10541074  RH  085%=      5-min Rain = 0
KTR1 141307Z 03003KT M05/M07 A3042 RMK A01 T10531074  RH  085%=      5-min Rain = 0
KTR1 141308Z 03003KT M05/M07 A3042 RMK A01 T10531074  RH  085%=      5-min Rain = 0
KTR1 141309Z 03004KT M05/M07 A3042 RMK A01 T10541074  RH  085%=      5-min Rain = 0
KTR1 141310Z 03004KT M05/M07 A3042 RMK A01 T10531074  RH  085%=      5-min Rain = 0
KTR1 141311Z 03003KT M05/M07 A3042 RMK A01 T10531073  RH  086%=      5-min Rain = 0
KTR1 141312Z 03004KT M05/M07 A3042 RMK A01 T10531074  RH  086%=      5-min Rain = 0
KTR1 141313Z 03004KT M05/M07 A3042 RMK A01 T10531074  RH  085%=      5-min Rain = 0
KTR1 141314Z 04004KT M05/M07 A3042 RMK A01 T10531074  RH  086%=      5-min Rain = 0
KTR1 141315Z 04004KT M05/M07 A3042 RMK A01 T10531074  RH  086%=      5-min Rain = 0
KTR1 141316Z 04004KT M05/M07 A3042 RMK A01 T10531074  RH  086%=      5-min Rain = 0
KTR1 141317Z 04004KT M05/M07 A3042 RMK A01 T10541074  RH  085%=      5-min Rain = 0
KTR1 141318Z 04004KT M05/M07 A3042 RMK A01 T10541074  RH  086%=      5-min Rain = 0
KTR1 141319Z 04004KT M05/M07 A3042 RMK A01 T10541074  RH  086%=      5-min Rain = 0
KTR1 141320Z 04004KT M05/M08 A3042 RMK A01 T10541075  RH  086%=      5-min Rain = 0
KTR1 141321Z 04004KT M05/M08 A3042 RMK A01 T10541075  RH  086%=      5-min Rain = 0
KTR1 141322Z 04003KT M05/M07 A3042 RMK A01 T10541074  RH  086%=      5-min Rain = 0
KTR1 141323Z 04003KT M05/M08 A3042 RMK A01 T10541075  RH  086%=      5-min Rain = 0
KTR1 141324Z 04003KT M05/M07 A3042 RMK A01 T10541074  RH  086%=      5-min Rain = 0
KTR1 141325Z 04003KT M05/M07 A3042 RMK A01 T10541074  RH  086%=      5-min Rain = 0
KTR1 141326Z 04002KT M05/M07 A3042 RMK A01 T10541074  RH  086%=      5-min Rain = 0
KTR1 141327Z 04003KT M05/M07 A3042 RMK A01 T10541074  RH  086%=      5-min Rain = 0
KTR1 141328Z 04003KT M05/M07 A3042 RMK A01 T10541073  RH  087%=      5-min Rain = 0
KTR1 141329Z 04002KT M05/M07 A3043 RMK A01 T10541073  RH  086%=      5-min Rain = 0
KTR1 141330Z 04002KT M05/M07 A3043 RMK A01 T10541073  RH  086%=      5-min Rain = 0
KTR1 141331Z 04002KT M05/M07 A3043 RMK A01 T10541073  RH  087%=      5-min Rain = 0
KTR1 141332Z 04002KT M05/M07 A3043 RMK A01 T10541073  RH  086%=      5-min Rain = 0
KTR1 141333Z 05002KT M05/M07 A3043 RMK A01 T10531073  RH  086%=      5-min Rain = 0
KTR1 141334Z 04002KT M05/M07 A3043 RMK A01 T10531073  RH  086%=      5-min Rain = 0
KTR1 141335Z 04002KT M05/M07 A3043 RMK A01 T10531073  RH  086%=      5-min Rain = 0
KTR1 141336Z 05002KT M05/M07 A3043 RMK A01 T10521073  RH  086%=      5-min Rain = 0
KTR1 141337Z 04002KT M05/M07 A3043 RMK A01 T10521073  RH  085%=      5-min Rain = 0
KTR1 141338Z 04002KT M05/M07 A3043 RMK A01 T10521074  RH  085%=      5-min Rain = 0
KTR1 141339Z 04002KT M05/M07 A3043 RMK A01 T10521073  RH  086%=      5-min Rain = 0
KTR1 141340Z 04002KT M05/M07 A3043 RMK A01 T10521073  RH  085%=      5-min Rain = 0
KTR1 141341Z 04002KT M05/M07 A3043 RMK A01 T10521073  RH  085%=      5-min Rain = 0
KTR1 141342Z 04003KT M05/M07 A3043 RMK A01 T10521073  RH  085%=      5-min Rain = 0
KTR1 141343Z 04002KT M05/M07 A3043 RMK A01 T10511074  RH  084%=      5-min Rain = 0
KTR1 141344Z 04002KT M05/M07 A3043 RMK A01 T10511073  RH  085%=      5-min Rain = 0
KTR1 141345Z 04002KT M05/M07 A3043 RMK A01 T10511073  RH  085%=      5-min Rain = 0
KTR1 141346Z 04002KT M05/M07 A3043 RMK A01 T10501073  RH  085%=      5-min Rain = 0
KTR1 141347Z 04002KT M05/M07 A3043 RMK A01 T10501072  RH  084%=      5-min Rain = 0
KTR1 141348Z 04002KT M05/M07 A3043 RMK A01 T10501072  RH  084%=      5-min Rain = 0
KTR1 141349Z 04001KT M05/M07 A3043 RMK A01 T10501072  RH  084%=      5-min Rain = 0
KTR1 141350Z 04002KT M05/M07 A3043 RMK A01 T10491072  RH  084%=      5-min Rain = 0
KTR1 141351Z 04002KT M05/M07 A3043 RMK A01 T10491072  RH  084%=      5-min Rain = 0
KTR1 141352Z 04002KT M05/M07 A3043 RMK A01 T10491072  RH  084%=      5-min Rain = 0
KTR1 141353Z 04002KT M05/M07 A3043 RMK A01 T10491073  RH  083%=      5-min Rain = 0
KTR1 141354Z 05002KT M05/M07 A3043 RMK A01 T10491074  RH  083%=      5-min Rain = 0
KTR1 141355Z 05001KT M05/M07 A3043 RMK A01 T10491074  RH  083%=      5-min Rain = 0
KTR1 141356Z 05001KT M05/M07 A3043 RMK A01 T10491074  RH  083%=      5-min Rain = 0
KTR1 141357Z 05002KT M05/M07 A3043 RMK A01 T10491073  RH  083%=      5-min Rain = 0
KTR1 141358Z 05001KT M05/M07 A3043 RMK A01 T10491074  RH  083%=      5-min Rain = 0
KTR1 141359Z 05002KT M05/M07 A3044 RMK A01 T10491072  RH  084%=      5-min Rain = 0
KTR1 141400Z 05002KT M05/M07 A3044 RMK A01 T10481071  RH  084%=      5-min Rain = 0
KTR1 141401Z 06002KT M05/M07 A3043 RMK A01 T10481071  RH  084%=      5-min Rain = 0
KTR1 141402Z 04001KT M05/M07 A3044 RMK A01 T10481071  RH  084%=      5-min Rain = 0
KTR1 141403Z 05002KT M05/M07 A3044 RMK A01 T10481071  RH  084%=      5-min Rain = 0
KTR1 141404Z 04002KT M05/M07 A3044 RMK A01 T10471072  RH  083%=      5-min Rain = 0
KTR1 141405Z 03002KT M05/M07 A3044 RMK A01 T10471072  RH  083%=      5-min Rain = 0
KTR1 141406Z 03002KT M05/M07 A3044 RMK A01 T10471072  RH  083%=      5-min Rain = 0
KTR1 141407Z 04002KT M05/M07 A3044 RMK A01 T10461072  RH  083%=      5-min Rain = 0
KTR1 141408Z 03002KT M05/M07 A3044 RMK A01 T10461072  RH  082%=      5-min Rain = 0
KTR1 141409Z 03003KT M05/M07 A3044 RMK A01 T10461071  RH  082%=      5-min Rain = 0
KTR1 141410Z 03003KT M05/M07 A3044 RMK A01 T10461071  RH  082%=      5-min Rain = 0
KTR1 141411Z 03002KT M05/M07 A3044 RMK A01 T10451072  RH  081%=      5-min Rain = 0
KTR1 141412Z 03002KT M05/M07 A3044 RMK A01 T10461072  RH  082%=      5-min Rain = 0
KTR1 141413Z 03002KT M05/M07 A3044 RMK A01 T10451069  RH  083%=      5-min Rain = 0
KTR1 141414Z 04003KT M04/M07 A3044 RMK A01 T10441069  RH  083%=      5-min Rain = 0
KTR1 141415Z 03002KT M04/M07 A3044 RMK A01 T10431071  RH  081%=      5-min Rain = 0
KTR1 141416Z 04003KT M04/M07 A3044 RMK A01 T10431070  RH  081%=      5-min Rain = 0
KTR1 141417Z 04003KT M04/M07 A3044 RMK A01 T10421070  RH  081%=      5-min Rain = 0
KTR1 141418Z 04003KT M04/M07 A3044 RMK A01 T10421071  RH  080%=      5-min Rain = 0
KTR1 141419Z 05004KT M04/M07 A3044 RMK A01 T10431072  RH  080%=      5-min Rain = 0
KTR1 141420Z 04003KT M04/M07 A3044 RMK A01 T10421072  RH  080%=      5-min Rain = 0
KTR1 141421Z 05003KT M04/M07 A3044 RMK A01 T10411069  RH  081%=      5-min Rain = 0
KTR1 141422Z 05004KT M04/M07 A3044 RMK A01 T10401069  RH  081%=      5-min Rain = 0
KTR1 141423Z 05003KT M04/M07 A3044 RMK A01 T10391069  RH  080%=      5-min Rain = 0
KTR1 141424Z 05004KT M04/M07 A3044 RMK A01 T10391070  RH  079%=      5-min Rain = 0
KTR1 141425Z 06004KT M04/M07 A3044 RMK A01 T10381071  RH  078%=      5-min Rain = 0
KTR1 141426Z 06003KT M04/M07 A3044 RMK A01 T10381073  RH  077%=      5-min Rain = 0
KTR1 141427Z 06004KT M04/M07 A3045 RMK A01 T10381072  RH  077%=      5-min Rain = 0
KTR1 141428Z 06004KT M04/M07 A3045 RMK A01 T10381073  RH  077%=      5-min Rain = 0
KTR1 141429Z 05003KT M04/M07 A3045 RMK A01 T10381073  RH  077%=      5-min Rain = 0
KTR1 141430Z 05003KT M04/M07 A3045 RMK A01 T10381073  RH  077%=      5-min Rain = 0
KTR1 141431Z 05004KT M04/M07 A3045 RMK A01 T10381073  RH  077%=      5-min Rain = 0
KTR1 141432Z 05004KT M04/M07 A3045 RMK A01 T10381073  RH  077%=      5-min Rain = 0
KTR1 141433Z 07004KT M04/M07 A3045 RMK A01 T10381073  RH  077%=      5-min Rain = 0
KTR1 141434Z 07004KT M04/M07 A3045 RMK A01 T10381074  RH  076%=      5-min Rain = 0
KTR1 141435Z 06003KT M04/M07 A3045 RMK A01 T10381074  RH  076%=      5-min Rain = 0
KTR1 141436Z 07003KT M04/M07 A3045 RMK A01 T10381072  RH  077%=      5-min Rain = 0
KTR1 141437Z 07003KT M04/M07 A3045 RMK A01 T10371071  RH  077%=      5-min Rain = 0
KTR1 141438Z 07005KT M04/M07 A3045 RMK A01 T10361071  RH  077%=      5-min Rain = 0
KTR1 141439Z 07004KT M04/M07 A3045 RMK A01 T10361072  RH  076%=      5-min Rain = 0
KTR1 141440Z 06004KT M04/M07 A3045 RMK A01 T10371072  RH  076%=      5-min Rain = 0
KTR1 141441Z 07004KT M04/M07 A3045 RMK A01 T10361071  RH  077%=      5-min Rain = 0
KTR1 141442Z 08004KT M04/M07 A3045 RMK A01 T10351068  RH  078%=      5-min Rain = 0
KTR1 141443Z 07004KT M04/M07 A3045 RMK A01 T10351068  RH  078%=      5-min Rain = 0
KTR1 141444Z 05003KT M03/M07 A3045 RMK A01 T10341069  RH  077%=      5-min Rain = 0
KTR1 141445Z 06004KT M03/M07 A3045 RMK A01 T10331068  RH  077%=      5-min Rain = 0
KTR1 141446Z 06004KT M03/M07 A3045 RMK A01 T10341072  RH  075%=      5-min Rain = 0
KTR1 141447Z 07004KT M04/M07 A3045 RMK A01 T10351071  RH  076%=      5-min Rain = 0
KTR1 141448Z 07003KT M04/M07 A3045 RMK A01 T10351069  RH  077%=      5-min Rain = 0
KTR1 141449Z 06004KT M03/M07 A3045 RMK A01 T10331067  RH  077%=      5-min Rain = 0
KTR1 141450Z 07004KT M03/M07 A3045 RMK A01 T10331068  RH  076%=      5-min Rain = 0
KTR1 141451Z 07004KT M03/M07 A3046 RMK A01 T10321070  RH  075%=      5-min Rain = 0
KTR1 141452Z 05003KT M03/M07 A3046 RMK A01 T10331071  RH  075%=      5-min Rain = 0
KTR1 141453Z 05004KT M03/M07 A3046 RMK A01 T10321068  RH  076%=      5-min Rain = 0
KTR1 141454Z 06004KT M03/M07 A3046 RMK A01 T10311067  RH  076%=      5-min Rain = 0
KTR1 141455Z 06004KT M03/M07 A3046 RMK A01 T10311069  RH  075%=      5-min Rain = 0
KTR1 141456Z 07004KT M03/M07 A3046 RMK A01 T10301068  RH  075%=      5-min Rain = 0
KTR1 141457Z 07005KT M03/M07 A3046 RMK A01 T10301070  RH  074%=      5-min Rain = 0
KTR1 141458Z 09005KT M03/M07 A3046 RMK A01 T10291070  RH  073%=      5-min Rain = 0
KTR1 141459Z 07004KT M03/M07 A3046 RMK A01 T10271068  RH  074%=      5-min Rain = 0
KTR1 141500Z 07005KT M03/M07 A3046 RMK A01 T10261066  RH  074%=      5-min Rain = 0
KTR1 141501Z 07005KT M03/M07 A3046 RMK A01 T10261070  RH  072%=      5-min Rain = 0
KTR1 141502Z 06005KT M03/M07 A3046 RMK A01 T10261071  RH  071%=      5-min Rain = 0
KTR1 141503Z 07005KT M03/M07 A3046 RMK A01 T10251072  RH  070%=      5-min Rain = 0
KTR1 141504Z 06004KT M03/M07 A3046 RMK A01 T10251070  RH  071%=      5-min Rain = 0
KTR1 141505Z 07005KT M03/M07 A3046 RMK A01 T10251071  RH  071%=      5-min Rain = 0
KTR1 141506Z 07005KT M02/M07 A3046 RMK A01 T10241070  RH  071%=      5-min Rain = 0
KTR1 141507Z 07004KT M02/M07 A3046 RMK A01 T10231069  RH  070%=      5-min Rain = 0
KTR1 141508Z 08004KT M02/M07 A3045 RMK A01 T10221068  RH  071%=      5-min Rain = 0
KTR1 141509Z 08005KT M02/M07 A3045 RMK A01 T10191067  RH  070%=      5-min Rain = 0
KTR1 141510Z 07005KT M02/M07 A3045 RMK A01 T10191069  RH  069%=      5-min Rain = 0
KTR1 141511Z 09006KT M02/M07 A3045 RMK A01 T10191070  RH  069%=      5-min Rain = 0
KTR1 141512Z 08004KT M02/M07 A3045 RMK A01 T10191068  RH  069%=      5-min Rain = 0
KTR1 141513Z 08006KT M02/M07 A3045 RMK A01 T10191070  RH  068%=      5-min Rain = 0
KTR1 141514Z 09006KT M02/M07 A3045 RMK A01 T10191072  RH  067%=      5-min Rain = 0
KTR1 141515Z 08006KT M02/M07 A3045 RMK A01 T10191073  RH  066%=      5-min Rain = 0
KTR1 141516Z 09005KT M02/M07 A3045 RMK A01 T10191074  RH  066%=      5-min Rain = 0
KTR1 141517Z 10004KT M02/M07 A3045 RMK A01 T10191073  RH  066%=      5-min Rain = 0
KTR1 141518Z 10004KT M02/M07 A3045 RMK A01 T10181072  RH  067%=      5-min Rain = 0
KTR1 141519Z 09005KT M02/M07 A3045 RMK A01 T10171073  RH  066%=      5-min Rain = 0
KTR1 141520Z 08004KT M02/M07 A3045 RMK A01 T10171072  RH  066%=      5-min Rain = 0
KTR1 141521Z 08004KT M02/M07 A3045 RMK A01 T10161069  RH  067%=      5-min Rain = 0
KTR1 141522Z 08005KT M02/M07 A3045 RMK A01 T10151070  RH  066%=      5-min Rain = 0
KTR1 141523Z 08004KT M02/M07 A3045 RMK A01 T10151071  RH  066%=      5-min Rain = 0
KTR1 141524Z 09003KT M02/M07 A3045 RMK A01 T10151070  RH  067%=      5-min Rain = 0
KTR1 141525Z 08006KT M01/M07 A3045 RMK A01 T10141068  RH  067%=      5-min Rain = 0
KTR1 141526Z 07006KT M01/M07 A3045 RMK A01 T10141073  RH  064%=      5-min Rain = 0
KTR1 141527Z 08005KT M02/M07 A3045 RMK A01 T10151074  RH  064%=      5-min Rain = 0
KTR1 141528Z 09005KT M02/M08 A3045 RMK A01 T10161075  RH  064%=      5-min Rain = 0
KTR1 141529Z 07006KT M02/M07 A3045 RMK A01 T10151072  RH  065%=      5-min Rain = 0
KTR1 141530Z 08006KT M02/M07 A3045 RMK A01 T10151073  RH  065%=      5-min Rain = 0
KTR1 141531Z 08005KT M02/M07 A3045 RMK A01 T10151073  RH  064%=      5-min Rain = 0
KTR1 141532Z 08005KT M02/M07 A3045 RMK A01 T10151072  RH  065%=      5-min Rain = 0
KTR1 141533Z 10004KT M01/M07 A3045 RMK A01 T10141074  RH  064%=      5-min Rain = 0
KTR1 141534Z 09005KT M01/M07 A3045 RMK A01 T10131069  RH  066%=      5-min Rain = 0
KTR1 141535Z 09006KT M01/M07 A3045 RMK A01 T10121071  RH  064%=      5-min Rain = 0
KTR1 141536Z 10005KT M01/M07 A3045 RMK A01 T10131071  RH  064%=      5-min Rain = 0
KTR1 141537Z 10005KT M01/M07 A3045 RMK A01 T10111069  RH  065%=      5-min Rain = 0
KTR1 141538Z 09006KT M01/M07 A3045 RMK A01 T10121073  RH  063%=      5-min Rain = 0
KTR1 141539Z 09005KT M01/M08 A3045 RMK A01 T10131075  RH  063%=      5-min Rain = 0
KTR1 141540Z 11004KT M01/M07 A3045 RMK A01 T10121071  RH  064%=      5-min Rain = 0
KTR1 141541Z 12004KT M01/M07 A3045 RMK A01 T10101073  RH  062%=      5-min Rain = 0
KTR1 141542Z 12005KT M01/M07 A3045 RMK A01 T10091071  RH  063%=      5-min Rain = 0
KTR1 141543Z 10007KT M01/M07 A3045 RMK A01 T10081073  RH  062%=      5-min Rain = 0
KTR1 141544Z 10004KT M01/M08 A3045 RMK A01 T10121079  RH  060%=      5-min Rain = 0
KTR1 141545Z 10003KT M01/M08 A3045 RMK A01 T10131079  RH  061%=      5-min Rain = 0
KTR1 141546Z 10006KT M01/M08 A3045 RMK A01 T10131077  RH  062%=      5-min Rain = 0
KTR1 141547Z 10006KT M01/M08 A3045 RMK A01 T10131076  RH  062%=      5-min Rain = 0
KTR1 141548Z 10005KT M01/M07 A3045 RMK A01 T10121074  RH  063%=      5-min Rain = 0
KTR1 141549Z 09004KT M01/M08 A3045 RMK A01 T10101075  RH  062%=      5-min Rain = 0
KTR1 141550Z 11005KT M01/M07 A3045 RMK A01 T10101074  RH  062%=      5-min Rain = 0
KTR1 141551Z 10006KT M01/M07 A3045 RMK A01 T10081072  RH  062%=      5-min Rain = 0
KTR1 141552Z 10006KT M01/M08 A3045 RMK A01 T10081076  RH  060%=      5-min Rain = 0
KTR1 141553Z 11006KT M01/M07 A3045 RMK A01 T10081072  RH  062%=      5-min Rain = 0
KTR1 141554Z 11005KT M01/M07 A3045 RMK A01 T10061071  RH  061%=      5-min Rain = 0
KTR1 141555Z 12003KT M01/M07 A3044 RMK A01 T10061074  RH  060%=      5-min Rain = 0
KTR1 141556Z 10004KT M01/M07 A3044 RMK A01 T10061073  RH  061%=      5-min Rain = 0
KTR1 141557Z 09003KT M01/M07 A3044 RMK A01 T10061073  RH  060%=      5-min Rain = 0
KTR1 141558Z 10004KT M01/M08 A3044 RMK A01 T10061076  RH  059%=      5-min Rain = 0
KTR1 141559Z 13006KT M01/M08 A3044 RMK A01 T10061075  RH  059%=      5-min Rain = 0
KTR1 141600Z 14005KT M01/M08 A3044 RMK A01 T10061077  RH  059%=      5-min Rain = 0
KTR1 141601Z 13004KT M01/M08 A3044 RMK A01 T10061077  RH  058%=      5-min Rain = 0
KTR1 141602Z 10006KT M01/M08 A3044 RMK A01 T10061076  RH  059%=      5-min Rain = 0
KTR1 141603Z 10004KT M01/M08 A3044 RMK A01 T10061077  RH  059%=      5-min Rain = 0
KTR1 141604Z 12007KT M01/M08 A3044 RMK A01 T10061077  RH  059%=      5-min Rain = 0
KTR1 141605Z 13006KT M01/M08 A3044 RMK A01 T10051077  RH  058%=      5-min Rain = 0
KTR1 141606Z 12005KT M01/M08 A3044 RMK A01 T10051076  RH  058%=      5-min Rain = 0
KTR1 141607Z 13005KT M01/M08 A3044 RMK A01 T10051079  RH  058%=      5-min Rain = 0
KTR1 141608Z 13006KT M00/M08 A3044 RMK A01 T10041075  RH  059%=      5-min Rain = 0
KTR1 141609Z 14005KT M00/M08 A3044 RMK A01 T10041076  RH  059%=      5-min Rain = 0
KTR1 141610Z 13005KT M00/M07 A3044 RMK A01 T10041074  RH  059%=      5-min Rain = 0
KTR1 141611Z 14005KT M00/M07 A3044 RMK A01 T10021072  RH  059%=      5-min Rain = 0
KTR1 141612Z 14006KT M00/M07 A3044 RMK A01 T10021073  RH  059%=      5-min Rain = 0
KTR1 141613Z 13007KT M00/M07 A3044 RMK A01 T10011073  RH  059%=      5-min Rain = 0
KTR1 141614Z 13006KT M00/M07 A3044 RMK A01 T10021074  RH  058%=      5-min Rain = 0
KTR1 141615Z 14005KT M00/M08 A3044 RMK A01 T10021075  RH  058%=      5-min Rain = 0
KTR1 141616Z 13004KT M00/M08 A3044 RMK A01 T10031077  RH  058%=      5-min Rain = 0
KTR1 141617Z 14004KT M00/M07 A3044 RMK A01 T10021071  RH  059%=      5-min Rain = 0
KTR1 141618Z 15004KT 00/M07 A3044 RMK A01 T00011070  RH  059%=      5-min Rain = 0
KTR1 141619Z 15006KT 00/M07 A3044 RMK A01 T00031068  RH  059%=      5-min Rain = 0
KTR1 141620Z 16005KT 00/M07 A3044 RMK A01 T00021073  RH  057%=      5-min Rain = 0
KTR1 141621Z 14005KT 00/M07 A3044 RMK A01 T00011074  RH  057%=      5-min Rain = 0
KTR1 141622Z 12006KT 00/M07 A3043 RMK A01 T00011073  RH  057%=      5-min Rain = 0
KTR1 141623Z 13007KT 00/M07 A3043 RMK A01 T00021072  RH  058%=      5-min Rain = 0
KTR1 141624Z 13005KT 00/M07 A3043 RMK A01 T00021070  RH  058%=      5-min Rain = 0
KTR1 141625Z 12006KT 00/M07 A3043 RMK A01 T00031069  RH  059%=      5-min Rain = 0
KTR1 141626Z 12005KT 00/M07 A3043 RMK A01 T00041070  RH  058%=      5-min Rain = 0
KTR1 141627Z 11004KT 00/M07 A3043 RMK A01 T00031074  RH  056%=      5-min Rain = 0
KTR1 141628Z 13003KT 00/M08 A3043 RMK A01 T00021075  RH  056%=      5-min Rain = 0
KTR1 141629Z 12003KT 00/M07 A3043 RMK A01 T00021074  RH  056%=      5-min Rain = 0
KTR1 141630Z 14003KT 00/M07 A3043 RMK A01 T00031072  RH  057%=      5-min Rain = 0
KTR1 141631Z 12003KT 01/M07 A3043 RMK A01 T00051070  RH  057%=      5-min Rain = 0
KTR1 141632Z 14005KT 01/M07 A3043 RMK A01 T00061067  RH  058%=      5-min Rain = 0
KTR1 141633Z 13005KT 01/M07 A3043 RMK A01 T00071067  RH  058%=      5-min Rain = 0
KTR1 141634Z 13006KT 01/M07 A3043 RMK A01 T00071065  RH  058%=      5-min Rain = 0
KTR1 141635Z 12005KT 01/M07 A3043 RMK A01 T00061069  RH  057%=      5-min Rain = 0
KTR1 141636Z 13005KT 01/M07 A3043 RMK A01 T00051070  RH  057%=      5-min Rain = 0
KTR1 141637Z 15009KT 01/M07 A3043 RMK A01 T00051066  RH  059%=      5-min Rain = 0
KTR1 141638Z 16007KT 01/M07 A3043 RMK A01 T00061067  RH  058%=      5-min Rain = 0
KTR1 141639Z 19006KT 01/M07 A3043 RMK A01 T00051069  RH  058%=      5-min Rain = 0
KTR1 141640Z 17004KT 00/M07 A3043 RMK A01 T00041068  RH  058%=      5-min Rain = 0
KTR1 141641Z 16005KT 01/M07 A3043 RMK A01 T00051065  RH  059%=      5-min Rain = 0
KTR1 141642Z 13007KT 01/M06 A3043 RMK A01 T00081062  RH  060%=      5-min Rain = 0
KTR1 141643Z 13006KT 01/M07 A3043 RMK A01 T00091065  RH  058%=      5-min Rain = 0
KTR1 141644Z 14006KT 01/M07 A3043 RMK A01 T00081065  RH  058%=      5-min Rain = 0
KTR1 141645Z 13005KT 01/M07 A3043 RMK A01 T00081067  RH  057%=      5-min Rain = 0
KTR1 141646Z 11004KT 01/M07 A3043 RMK A01 T00071067  RH  058%=      5-min Rain = 0
KTR1 141647Z 15002KT 01/M07 A3043 RMK A01 T00081067  RH  058%=      5-min Rain = 0
KTR1 141648Z 18004KT 01/M06 A3043 RMK A01 T00091063  RH  059%=      5-min Rain = 0
KTR1 141649Z 18005KT 01/M06 A3043 RMK A01 T00101064  RH  058%=      5-min Rain = 0
KTR1 141650Z 16004KT 01/M07 A3043 RMK A01 T00081065  RH  058%=      5-min Rain = 0
KTR1 141651Z 17005KT 01/M07 A3043 RMK A01 T00081067  RH  058%=      5-min Rain = 0
KTR1 141652Z 18005KT 01/M06 A3043 RMK A01 T00081062  RH  060%=      5-min Rain = 0
KTR1 141653Z 16004KT 01/M06 A3043 RMK A01 T00091061  RH  059%=      5-min Rain = 0
KTR1 141654Z 12003KT 01/M06 A3043 RMK A01 T00101061  RH  059%=      5-min Rain = 0
KTR1 141655Z 10002KT 01/M07 A3043 RMK A01 T00101066  RH  057%=      5-min Rain = 0
KTR1 141656Z 17003KT 01/M06 A3043 RMK A01 T00101064  RH  057%=      5-min Rain = 0
KTR1 141657Z 18005KT 01/M06 A3043 RMK A01 T00131058  RH  059%=      5-min Rain = 0
KTR1 141658Z 14005KT 02/M06 A3043 RMK A01 T00151056  RH  059%=      5-min Rain = 0
KTR1 141659Z 13006KT 02/M06 A3043 RMK A01 T00171056  RH  058%=      5-min Rain = 0
KTR1 141700Z 13006KT 02/M06 A3043 RMK A01 T00161062  RH  056%=      5-min Rain = 0
KTR1 141701Z 14006KT 01/M06 A3043 RMK A01 T00141061  RH  058%=      5-min Rain = 0
KTR1 141702Z 14006KT 01/M06 A3043 RMK A01 T00131064  RH  057%=      5-min Rain = 0
KTR1 141703Z 14003KT 01/M06 A3043 RMK A01 T00121063  RH  057%=      5-min Rain = 0
KTR1 141704Z 14002KT 01/M07 A3043 RMK A01 T00121065  RH  057%=      5-min Rain = 0
KTR1 141705Z 14002KT 01/M06 A3043 RMK A01 T00121064  RH  057%=      5-min Rain = 0
KTR1 141706Z 15004KT 02/M06 A3043 RMK A01 T00151058  RH  058%=      5-min Rain = 0
KTR1 141707Z 16006KT 02/M06 A3043 RMK A01 T00161056  RH  059%=      5-min Rain = 0
KTR1 141708Z 15005KT 02/M06 A3043 RMK A01 T00181056  RH  058%=      5-min Rain = 0
KTR1 141709Z 14005KT 02/M06 A3043 RMK A01 T00171061  RH  056%=      5-min Rain = 0
KTR1 141710Z 15004KT 01/M06 A3043 RMK A01 T00141064  RH  056%=      5-min Rain = 0
KTR1 141711Z 15007KT 02/M06 A3043 RMK A01 T00151058  RH  058%=      5-min Rain = 0
KTR1 141712Z 18007KT 02/M05 A3043 RMK A01 T00171054  RH  059%=      5-min Rain = 0
KTR1 141713Z 19005KT 02/M06 A3043 RMK A01 T00181055  RH  059%=      5-min Rain = 0
KTR1 141714Z 17004KT 02/M06 A3043 RMK A01 T00171059  RH  057%=      5-min Rain = 0
KTR1 141715Z 16006KT 02/M06 A3043 RMK A01 T00151057  RH  059%=      5-min Rain = 0
KTR1 141716Z 15008KT 02/M06 A3043 RMK A01 T00171055  RH  059%=      5-min Rain = 0
KTR1 141717Z 14007KT 02/M06 A3043 RMK A01 T00171057  RH  058%=      5-min Rain = 0
KTR1 141718Z 14007KT 02/M05 A3043 RMK A01 T00181053  RH  059%=      5-min Rain = 0
KTR1 141719Z 16005KT 02/M06 A3043 RMK A01 T00191056  RH  057%=      5-min Rain = 0
KTR1 141720Z 18005KT 02/M05 A3042 RMK A01 T00191052  RH  059%=      5-min Rain = 0
KTR1 141721Z 16004KT 02/M06 A3042 RMK A01 T00191057  RH  057%=      5-min Rain = 0
KTR1 141722Z 17005KT 02/M06 A3042 RMK A01 T00181057  RH  057%=      5-min Rain = 0
KTR1 141723Z 18005KT 02/M05 A3042 RMK A01 T00191052  RH  060%=      5-min Rain = 0
KTR1 141724Z 17004KT 02/M06 A3042 RMK A01 T00201055  RH  057%=      5-min Rain = 0
KTR1 141725Z 16004KT 02/M05 A3042 RMK A01 T00201053  RH  058%=      5-min Rain = 0
KTR1 141726Z 16009KT 02/M05 A3042 RMK A01 T00211050  RH  059%=      5-min Rain = 0
KTR1 141727Z 16010KT 02/M05 A3042 RMK A01 T00231045  RH  061%=      5-min Rain = 0
KTR1 141728Z 16008KT 02/M05 A3042 RMK A01 T00231049  RH  059%=      5-min Rain = 0
KTR1 141729Z 16009KT 02/M05 A3042 RMK A01 T00231047  RH  060%=      5-min Rain = 0
KTR1 141730Z 17007KT 02/M05 A3042 RMK A01 T00231049  RH  059%=      5-min Rain = 0
KTR1 141731Z 16008KT 02/M05 A3042 RMK A01 T00231050  RH  058%=      5-min Rain = 0
KTR1 141732Z 17007KT 02/M05 A3042 RMK A01 T00231049  RH  059%=      5-min Rain = 0
KTR1 141733Z 16004KT 02/M05 A3042 RMK A01 T00241050  RH  058%=      5-min Rain = 0
KTR1 141734Z 16007KT 03/M05 A3042 RMK A01 T00251048  RH  059%=      5-min Rain = 0
KTR1 141735Z 19009KT 03/M04 A3042 RMK A01 T00271043  RH  060%=      5-min Rain = 0
KTR1 141736Z 19007KT 03/M05 A3042 RMK A01 T00281046  RH  058%=      5-min Rain = 0
KTR1 141737Z 18007KT 03/M05 A3042 RMK A01 T00271045  RH  059%=      5-min Rain = 0
KTR1 141738Z 18007KT 03/M05 A3042 RMK A01 T00281048  RH  057%=      5-min Rain = 0
KTR1 141739Z 16006KT 03/M06 A3042 RMK A01 T00251055  RH  056%=      5-min Rain = 0
KTR1 141740Z 16007KT 02/M05 A3042 RMK A01 T00241050  RH  058%=      5-min Rain = 0
KTR1 141741Z 15005KT 03/M05 A3042 RMK A01 T00251050  RH  058%=      5-min Rain = 0
KTR1 141742Z 16007KT 03/M05 A3041 RMK A01 T00251050  RH  058%=      5-min Rain = 0
KTR1 141743Z 15009KT 03/M04 A3041 RMK A01 T00291035  RH  063%=      5-min Rain = 0
KTR1 141744Z 16009KT 03/M04 A3041 RMK A01 T00331038  RH  060%=      5-min Rain = 0
KTR1 141745Z 16007KT 03/M05 A3041 RMK A01 T00311046  RH  057%=      5-min Rain = 0
KTR1 141746Z 16006KT 03/M05 A3041 RMK A01 T00301045  RH  058%=      5-min Rain = 0
KTR1 141747Z 15004KT 03/M05 A3041 RMK A01 T00291051  RH  056%=      5-min Rain = 0
KTR1 141748Z 16009KT 03/M05 A3041 RMK A01 T00281045  RH  058%=      5-min Rain = 0
KTR1 141749Z 16011KT 03/M04 A3041 RMK A01 T00301041  RH  060%=      5-min Rain = 0
KTR1 141750Z 17011KT 03/M04 A3041 RMK A01 T00311039  RH  060%=      5-min Rain = 0
KTR1 141751Z 17008KT 03/M04 A3041 RMK A01 T00301042  RH  059%=      5-min Rain = 0
KTR1 141752Z 16010KT 03/M04 A3041 RMK A01 T00311036  RH  061%=      5-min Rain = 0
KTR1 141753Z 17008KT 03/M04 A3041 RMK A01 T00321038  RH  060%=      5-min Rain = 0
KTR1 141754Z 19008KT 04/M03 A3041 RMK A01 T00351030  RH  062%=      5-min Rain = 0
KTR1 141755Z 18006KT 04/M04 A3041 RMK A01 T00361039  RH  058%=      5-min Rain = 0
KTR1 141756Z 18005KT 03/M04 A3041 RMK A01 T00331041  RH  058%=      5-min Rain = 0
KTR1 141757Z 18008KT 03/M03 A3041 RMK A01 T00341032  RH  062%=      5-min Rain = 0
KTR1 141758Z 17010KT 04/M04 A3041 RMK A01 T00371035  RH  059%=      5-min Rain = 0
KTR1 141759Z 16010KT 04/M04 A3041 RMK A01 T00361037  RH  059%=      5-min Rain = 0
KTR1 141800Z 15008KT 03/M04 A3041 RMK A01 T00341041  RH  058%=      5-min Rain = 0
KTR1 141801Z 14006KT 03/M04 A3041 RMK A01 T00331044  RH  057%=      5-min Rain = 0
KTR1 141802Z 17009KT 03/M04 A3041 RMK A01 T00321041  RH  059%=      5-min Rain = 0
KTR1 141803Z 18010KT 03/M04 A304 RMK A01 T00331038  RH  060%=      5-min Rain = 0
KTR1 141804Z 18009KT 03/M04 A304 RMK A01 T00331037  RH  060%=      5-min Rain = 0
KTR1 141805Z 18009KT 03/M04 A304 RMK A01 T00341039  RH  059%=      5-min Rain = 0
KTR1 141806Z 19006KT 03/M04 A304 RMK A01 T00331041  RH  058%=      5-min Rain = 0
KTR1 141807Z 19006KT 03/M04 A304 RMK A01 T00321041  RH  059%=      5-min Rain = 0
KTR1 141808Z 14006KT 03/M03 A304 RMK A01 T00341034  RH  061%=      5-min Rain = 0
KTR1 141809Z 13008KT 04/M04 A304 RMK A01 T00361037  RH  059%=      5-min Rain = 0
KTR1 141810Z 13008KT 04/M04 A304 RMK A01 T00351041  RH  058%=      5-min Rain = 0
KTR1 141811Z 13005KT 03/M04 A304 RMK A01 T00341043  RH  057%=      5-min Rain = 0
KTR1 141812Z 14005KT 03/M04 A304 RMK A01 T00321042  RH  058%=      5-min Rain = 0
KTR1 141813Z 16004KT 03/M04 A304 RMK A01 T00341037  RH  060%=      5-min Rain = 0
KTR1 141814Z 18007KT 04/M03 A3039 RMK A01 T00371032  RH  061%=      5-min Rain = 0
KTR1 141815Z 17010KT 04/M03 A3039 RMK A01 T00391031  RH  060%=      5-min Rain = 0
KTR1 141816Z 16011KT 04/M03 A3039 RMK A01 T00401031  RH  060%=      5-min Rain = 0
KTR1 141817Z 15009KT 04/M04 A3039 RMK A01 T00381036  RH  058%=      5-min Rain = 0
KTR1 141818Z 17008KT 04/M04 A3039 RMK A01 T00361037  RH  059%=      5-min Rain = 0
KTR1 141819Z 18006KT 04/M04 A3039 RMK A01 T00361040  RH  057%=      5-min Rain = 0
KTR1 141820Z 16007KT 04/M04 A3039 RMK A01 T00361037  RH  059%=      5-min Rain = 0
KTR1 141821Z 16008KT 04/M04 A3039 RMK A01 T00371035  RH  059%=      5-min Rain = 0
KTR1 141822Z 16009KT 04/M03 A3039 RMK A01 T00381034  RH  059%=      5-min Rain = 0
KTR1 141823Z 15007KT 04/M04 A3039 RMK A01 T00391037  RH  058%=      5-min Rain = 0
KTR1 141824Z 16009KT 04/M04 A3038 RMK A01 T00371038  RH  058%=      5-min Rain = 0
KTR1 141825Z 17006KT 04/M03 A3038 RMK A01 T00381033  RH  060%=      5-min Rain = 0
KTR1 141826Z 18009KT 04/M04 A3038 RMK A01 T00391035  RH  058%=      5-min Rain = 0
KTR1 141827Z 17008KT 04/M04 A3038 RMK A01 T00381038  RH  057%=      5-min Rain = 0
KTR1 141828Z 17005KT 04/M04 A3038 RMK A01 T00371039  RH  058%=      5-min Rain = 0
KTR1 141829Z 17009KT 04/M03 A3038 RMK A01 T00371032  RH  060%=      5-min Rain = 0
KTR1 141830Z 16006KT 04/M03 A3038 RMK A01 T00391031  RH  060%=      5-min Rain = 0
KTR1 141831Z 15007KT 04/M03 A3038 RMK A01 T00411029  RH  061%=      5-min Rain = 0
KTR1 141832Z 18009KT 04/M03 A3038 RMK A01 T00431030  RH  059%=      5-min Rain = 0
KTR1 141833Z 18011KT 04/M03 A3038 RMK A01 T00431028  RH  060%=      5-min Rain = 0
KTR1 141834Z 17010KT 04/M03 A3038 RMK A01 T00431028  RH  060%=      5-min Rain = 0
KTR1 141835Z 18009KT 04/M03 A3037 RMK A01 T00431031  RH  059%=      5-min Rain = 0
KTR1 141836Z 17011KT 04/M03 A3037 RMK A01 T00411030  RH  060%=      5-min Rain = 0
KTR1 141837Z 18010KT 04/M03 A3037 RMK A01 T00421028  RH  060%=      5-min Rain = 0
KTR1 141838Z 19009KT 04/M03 A3037 RMK A01 T00411033  RH  059%=      5-min Rain = 0
KTR1 141839Z 18011KT 04/M03 A3037 RMK A01 T00401028  RH  061%=      5-min Rain = 0
KTR1 141840Z 19010KT 04/M03 A3037 RMK A01 T00421028  RH  060%=      5-min Rain = 0
KTR1 141841Z 18005KT 04/M03 A3037 RMK A01 T00431029  RH  060%=      5-min Rain = 0
KTR1 141842Z 18004KT 05/M03 A3037 RMK A01 T00451026  RH  060%=      5-min Rain = 0
KTR1 141843Z 18006KT 05/M03 A3037 RMK A01 T00461030  RH  058%=      5-min Rain = 0
KTR1 141844Z 17008KT 05/M03 A3037 RMK A01 T00451029  RH  058%=      5-min Rain = 0
KTR1 141845Z 16008KT 05/M02 A3037 RMK A01 T00461021  RH  062%=      5-min Rain = 0
KTR1 141846Z 15007KT 05/M02 A3037 RMK A01 T00501019  RH  061%=      5-min Rain = 0
KTR1 141847Z 15006KT 05/M03 A3037 RMK A01 T00511029  RH  056%=      5-min Rain = 0
KTR1 141848Z 16006KT 05/M03 A3037 RMK A01 T00481031  RH  057%=      5-min Rain = 0
KTR1 141849Z 16011KT 05/M02 A3036 RMK A01 T00481021  RH  061%=      5-min Rain = 0
KTR1 141850Z 15010KT 05/M02 A3036 RMK A01 T00491024  RH  059%=      5-min Rain = 0
KTR1 141851Z 15008KT 05/M03 A3036 RMK A01 T00481027  RH  058%=      5-min Rain = 0
KTR1 141852Z 15007KT 05/M03 A3036 RMK A01 T00461033  RH  057%=      5-min Rain = 0
KTR1 141853Z 16007KT 05/M03 A3036 RMK A01 T00451033  RH  057%=      5-min Rain = 0
KTR1 141854Z 16009KT 05/M03 A3036 RMK A01 T00451028  RH  059%=      5-min Rain = 0
KTR1 141855Z 16008KT 05/M03 A3036 RMK A01 T00461029  RH  058%=      5-min Rain = 0
KTR1 141856Z 19008KT 05/M02 A3036 RMK A01 T00471022  RH  061%=      5-min Rain = 0
KTR1 141857Z 16009KT 05/M02 A3036 RMK A01 T00501020  RH  061%=      5-min Rain = 0
KTR1 141858Z 15010KT 05/M02 A3035 RMK A01 T00521023  RH  058%=      5-min Rain = 0
KTR1 141859Z 15008KT 05/M03 A3035 RMK A01 T00511028  RH  057%=      5-min Rain = 0
KTR1 141900Z 13009KT 05/M03 A3035 RMK A01 T00491032  RH  056%=      5-min Rain = 0
KTR1 141901Z 14008KT 05/M03 A3035 RMK A01 T00481029  RH  058%=      5-min Rain = 0
KTR1 141902Z 16011KT 05/M02 A3035 RMK A01 T00501019  RH  061%=      5-min Rain = 0
KTR1 141903Z 17008KT 05/M03 A3035 RMK A01 T00501032  RH  056%=      5-min Rain = 0
KTR1 141904Z 16006KT 05/M03 A3035 RMK A01 T00471032  RH  057%=      5-min Rain = 0
KTR1 141905Z 16009KT 05/M03 A3035 RMK A01 T00471026  RH  059%=      5-min Rain = 0
KTR1 141906Z 16011KT 05/M02 A3035 RMK A01 T00501020  RH  061%=      5-min Rain = 0
KTR1 141907Z 16009KT 05/M03 A3035 RMK A01 T00511029  RH  056%=      5-min Rain = 0
KTR1 141908Z 17010KT 05/M03 A3035 RMK A01 T00481032  RH  056%=      5-min Rain = 0
KTR1 141909Z 16011KT 05/M03 A3035 RMK A01 T00481026  RH  059%=      5-min Rain = 0
KTR1 141910Z 15011KT 05/M03 A3035 RMK A01 T00491028  RH  057%=      5-min Rain = 0
KTR1 141911Z 15009KT 05/M03 A3035 RMK A01 T00491028  RH  058%=      5-min Rain = 0
KTR1 141912Z 16008KT 05/M03 A3035 RMK A01 T00491028  RH  058%=      5-min Rain = 0
KTR1 141913Z 17007KT 05/M02 A3035 RMK A01 T00501023  RH  059%=      5-min Rain = 0
KTR1 141914Z 15006KT 05/M02 A3035 RMK A01 T00531022  RH  059%=      5-min Rain = 0
KTR1 141915Z 15008KT 05/M02 A3034 RMK A01 T00541022  RH  058%=      5-min Rain = 0
KTR1 141916Z 14008KT 05/M03 A3034 RMK A01 T00541026  RH  056%=      5-min Rain = 0
KTR1 141917Z 16009KT 05/M02 A3034 RMK A01 T00541024  RH  057%=      5-min Rain = 0
KTR1 141918Z 17012KT 05/M03 A3034 RMK A01 T00541027  RH  056%=      5-min Rain = 0
KTR1 141919Z 18011KT 05/M03 A3034 RMK A01 T00521028  RH  056%=      5-min Rain = 0
KTR1 141920Z 16010KT 05/M02 A3034 RMK A01 T00521023  RH  058%=      5-min Rain = 0
KTR1 141921Z 17010KT 05/M02 A3034 RMK A01 T00541018  RH  060%=      5-min Rain = 0
KTR1 141922Z 17009KT 06/M03 A3034 RMK A01 T00561025  RH  056%=      5-min Rain = 0
KTR1 141923Z 16008KT 05/M03 A3034 RMK A01 T00531026  RH  057%=      5-min Rain = 0
KTR1 141924Z 15006KT 05/M03 A3034 RMK A01 T00531028  RH  056%=      5-min Rain = 0
KTR1 141925Z 19007KT 05/M02 A3034 RMK A01 T00531024  RH  058%=      5-min Rain = 0
KTR1 141926Z 17006KT 05/M03 A3034 RMK A01 T00531025  RH  057%=      5-min Rain = 0
KTR1 141927Z 17009KT 05/M03 A3034 RMK A01 T00541026  RH  056%=      5-min Rain = 0
KTR1 141928Z 17012KT 06/M02 A3034 RMK A01 T00551021  RH  058%=      5-min Rain = 0
KTR1 141929Z 16010KT 06/M03 A3034 RMK A01 T00551026  RH  056%=      5-min Rain = 0
KTR1 141930Z 15010KT 05/M03 A3033 RMK A01 T00541025  RH  057%=      5-min Rain = 0
KTR1 141931Z 15007KT 05/M03 A3033 RMK A01 T00541027  RH  056%=      5-min Rain = 0
KTR1 141932Z 14006KT 05/M03 A3033 RMK A01 T00531032  RH  054%=      5-min Rain = 0
KTR1 141933Z 15005KT 05/M03 A3033 RMK A01 T00511034  RH  054%=      5-min Rain = 0
KTR1 141934Z 17010KT 05/M02 A3033 RMK A01 T00521023  RH  058%=      5-min Rain = 0
KTR1 141935Z 17008KT 06/M03 A3033 RMK A01 T00551025  RH  056%=      5-min Rain = 0
KTR1 141936Z 17008KT 05/M03 A3033 RMK A01 T00541029  RH  055%=      5-min Rain = 0
KTR1 141937Z 17006KT 05/M03 A3033 RMK A01 T00531032  RH  055%=      5-min Rain = 0
KTR1 141938Z 16007KT 05/M03 A3033 RMK A01 T00521028  RH  056%=      5-min Rain = 0
KTR1 141939Z 16008KT 06/M02 A3033 RMK A01 T00551021  RH  058%=      5-min Rain = 0
KTR1 141940Z 17007KT 06/M02 A3033 RMK A01 T00581023  RH  056%=      5-min Rain = 0
KTR1 141941Z 20006KT 06/M02 A3032 RMK A01 T00571024  RH  056%=      5-min Rain = 0
KTR1 141942Z 20005KT 06/M03 A3032 RMK A01 T00571028  RH  054%=      5-min Rain = 0
KTR1 141943Z 20006KT 06/M03 A3032 RMK A01 T00571027  RH  055%=      5-min Rain = 0
KTR1 141944Z 18010KT 06/M02 A3032 RMK A01 T00571024  RH  056%=      5-min Rain = 0
KTR1 141945Z 18010KT 06/M02 A3032 RMK A01 T00611016  RH  058%=      5-min Rain = 0
KTR1 141946Z 18009KT 06/M02 A3032 RMK A01 T00631021  RH  055%=      5-min Rain = 0
KTR1 141947Z 17008KT 06/M03 A3032 RMK A01 T00611028  RH  053%=      5-min Rain = 0
KTR1 141948Z 15008KT 06/M03 A3032 RMK A01 T00591026  RH  054%=      5-min Rain = 0
KTR1 141949Z 15008KT 06/M03 A3032 RMK A01 T00581029  RH  054%=      5-min Rain = 0
KTR1 141950Z 13009KT 06/M02 A3032 RMK A01 T00571024  RH  056%=      5-min Rain = 0
KTR1 141951Z 13009KT 06/M02 A3032 RMK A01 T00601021  RH  056%=      5-min Rain = 0
KTR1 141952Z 16009KT 06/M01 A3031 RMK A01 T00621014  RH  058%=      5-min Rain = 0
KTR1 141953Z 18009KT 07/M02 A3031 RMK A01 T00651015  RH  057%=      5-min Rain = 0
KTR1 141954Z 16010KT 07/M02 A3031 RMK A01 T00661015  RH  056%=      5-min Rain = 0
KTR1 141955Z 15011KT 07/M02 A3031 RMK A01 T00671017  RH  055%=      5-min Rain = 0
KTR1 141956Z 15010KT 06/M02 A3031 RMK A01 T00641021  RH  054%=      5-min Rain = 0
KTR1 141957Z 16010KT 06/M02 A3031 RMK A01 T00641020  RH  055%=      5-min Rain = 0
KTR1 141958Z 17008KT 06/M03 A3031 RMK A01 T00631025  RH  053%=      5-min Rain = 0
KTR1 141959Z 15010KT 06/M03 A3031 RMK A01 T00621025  RH  054%=      5-min Rain = 0
KTR1 142000Z 18010KT 06/M02 A3031 RMK A01 T00621021  RH  055%=      5-min Rain = 0
KTR1 142001Z 18010KT 06/M02 A3031 RMK A01 T00631018  RH  056%=      5-min Rain = 0
KTR1 142002Z 17012KT 07/M02 A3031 RMK A01 T00651016  RH  056%=      5-min Rain = 0
KTR1 142003Z 18012KT 07/M02 A3031 RMK A01 T00661018  RH  055%=      5-min Rain = 0
KTR1 142004Z 16011KT 07/M02 A3031 RMK A01 T00651024  RH  053%=      5-min Rain = 0
KTR1 142005Z 17011KT 06/M02 A3031 RMK A01 T00641024  RH  053%=      5-min Rain = 0
KTR1 142006Z 17008KT 06/M03 A3031 RMK A01 T00631026  RH  053%=      5-min Rain = 0
KTR1 142007Z 17011KT 06/M02 A3031 RMK A01 T00621022  RH  055%=      5-min Rain = 0
KTR1 142008Z 16013KT 06/M02 A3031 RMK A01 T00641021  RH  055%=      5-min Rain = 0
KTR1 142009Z 18011KT 07/M02 A3031 RMK A01 T00651019  RH  055%=      5-min Rain = 0
KTR1 142010Z 16009KT 07/M03 A3031 RMK A01 T00651025  RH  053%=      5-min Rain = 0
KTR1 142011Z 16010KT 07/M03 A3031 RMK A01 T00651026  RH  052%=      5-min Rain = 0
KTR1 142012Z 15011KT 06/M03 A303 RMK A01 T00641026  RH  052%=      5-min Rain = 0
KTR1 142013Z 17011KT 06/M02 A303 RMK A01 T00641023  RH  054%=      5-min Rain = 0
KTR1 142014Z 17010KT 06/M03 A303 RMK A01 T00641025  RH  053%=      5-min Rain = 0
KTR1 142015Z 17013KT 07/M03 A303 RMK A01 T00651027  RH  052%=      5-min Rain = 0
KTR1 142016Z 17011KT 06/M02 A303 RMK A01 T00641023  RH  054%=      5-min Rain = 0
KTR1 142017Z 17013KT 07/M02 A303 RMK A01 T00661021  RH  054%=      5-min Rain = 0
KTR1 142018Z 17011KT 07/M02 A303 RMK A01 T00671021  RH  054%=      5-min Rain = 0
KTR1 142019Z 17008KT 07/M02 A303 RMK A01 T00661023  RH  053%=      5-min Rain = 0
KTR1 142020Z 17010KT 07/M02 A303 RMK A01 T00671020  RH  054%=      5-min Rain = 0
KTR1 142021Z 17009KT 07/M02 A303 RMK A01 T00681022  RH  053%=      5-min Rain = 0
KTR1 142022Z 17007KT 07/M03 A303 RMK A01 T00661025  RH  052%=      5-min Rain = 0
KTR1 142023Z 16011KT 07/M02 A303 RMK A01 T00671015  RH  056%=      5-min Rain = 0
KTR1 142024Z 15013KT 07/M02 A303 RMK A01 T00691019  RH  053%=      5-min Rain = 0
KTR1 142025Z 15011KT 07/M02 A303 RMK A01 T00681021  RH  053%=      5-min Rain = 0
KTR1 142026Z 16012KT 07/M03 A3029 RMK A01 T00661026  RH  052%=      5-min Rain = 0
KTR1 142027Z 15011KT 07/M02 A3029 RMK A01 T00651023  RH  053%=      5-min Rain = 0
KTR1 142028Z 15010KT 07/M02 A3029 RMK A01 T00651022  RH  054%=      5-min Rain = 0
KTR1 142029Z 17009KT 07/M02 A3029 RMK A01 T00661022  RH  053%=      5-min Rain = 0
KTR1 142030Z 16008KT 07/M02 A3029 RMK A01 T00661023  RH  053%=      5-min Rain = 0
KTR1 142031Z 18010KT 07/M02 A3029 RMK A01 T00661023  RH  053%=      5-min Rain = 0
KTR1 142032Z 18010KT 07/M02 A3029 RMK A01 T00671016  RH  055%=      5-min Rain = 0
KTR1 142033Z 17010KT 07/M02 A3029 RMK A01 T00711017  RH  054%=      5-min Rain = 0
KTR1 142034Z 17010KT 07/M01 A3029 RMK A01 T00721014  RH  054%=      5-min Rain = 0
KTR1 142035Z 17012KT 07/M02 A3029 RMK A01 T00741016  RH  053%=      5-min Rain = 0
KTR1 142036Z 17012KT 07/M02 A3029 RMK A01 T00721019  RH  052%=      5-min Rain = 0
KTR1 142037Z 18011KT 07/M02 A3029 RMK A01 T00701020  RH  053%=      5-min Rain = 0
KTR1 142038Z 16008KT 07/M02 A3029 RMK A01 T00701023  RH  052%=      5-min Rain = 0
KTR1 142039Z 16007KT 07/M03 A3029 RMK A01 T00691027  RH  051%=      5-min Rain = 0
KTR1 142040Z 17010KT 07/M02 A3029 RMK A01 T00681019  RH  054%=      5-min Rain = 0
KTR1 142041Z 20010KT 07/M02 A3029 RMK A01 T00711018  RH  053%=      5-min Rain = 0
KTR1 142042Z 18008KT 07/M02 A3029 RMK A01 T00691023  RH  052%=      5-min Rain = 0
KTR1 142043Z 17011KT 07/M02 A3029 RMK A01 T00691019  RH  054%=      5-min Rain = 0
KTR1 142044Z 18010KT 07/M02 A3029 RMK A01 T00711015  RH  054%=      5-min Rain = 0
KTR1 142045Z 17011KT 07/M02 A3029 RMK A01 T00731017  RH  053%=      5-min Rain = 0
KTR1 142046Z 17013KT 07/M02 A3029 RMK A01 T00721017  RH  053%=      5-min Rain = 0
KTR1 142047Z 16011KT 07/M02 A3029 RMK A01 T00721018  RH  053%=      5-min Rain = 0
KTR1 142048Z 16010KT 07/M02 A3029 RMK A01 T00721018  RH  053%=      5-min Rain = 0
KTR1 142049Z 16009KT 07/M02 A3029 RMK A01 T00721019  RH  052%=      5-min Rain = 0
KTR1 142050Z 15011KT 07/M02 A3029 RMK A01 T00721018  RH  053%=      5-min Rain = 0
KTR1 142051Z 16011KT 07/M02 A3029 RMK A01 T00731017  RH  053%=      5-min Rain = 0
KTR1 142052Z 16010KT 07/M02 A3029 RMK A01 T00741021  RH  051%=      5-min Rain = 0
KTR1 142053Z 15008KT 07/M02 A3029 RMK A01 T00731024  RH  050%=      5-min Rain = 0
KTR1 142054Z 18012KT 07/M02 A3028 RMK A01 T00731020  RH  052%=      5-min Rain = 0
KTR1 142055Z 18012KT 07/M02 A3028 RMK A01 T00731016  RH  053%=      5-min Rain = 0
KTR1 142056Z 18010KT 07/M02 A3028 RMK A01 T00741019  RH  051%=      5-min Rain = 0
KTR1 142057Z 17011KT 07/M02 A3028 RMK A01 T00731019  RH  052%=      5-min Rain = 0
KTR1 142058Z 17008KT 07/M02 A3028 RMK A01 T00731018  RH  052%=      5-min Rain = 0
KTR1 142059Z 17011KT 07/M01 A3028 RMK A01 T00741014  RH  054%=      5-min Rain = 0
KTR1 142100Z 17012KT 08/M02 A3028 RMK A01 T00751015  RH  053%=      5-min Rain = 0
KTR1 142101Z 17013KT 08/M02 A3028 RMK A01 T00761015  RH  053%=      5-min Rain = 0
KTR1 142102Z 18011KT 08/M02 A3028 RMK A01 T00751018  RH  051%=      5-min Rain = 0
KTR1 142103Z 16011KT 08/M02 A3028 RMK A01 T00751016  RH  053%=      5-min Rain = 0
KTR1 142104Z 16011KT 08/M02 A3028 RMK A01 T00761016  RH  052%=      5-min Rain = 0
KTR1 142105Z 18010KT 08/M02 A3028 RMK A01 T00751017  RH  052%=      5-min Rain = 0
KTR1 142106Z 18010KT 07/M02 A3028 RMK A01 T00741019  RH  052%=      5-min Rain = 0
KTR1 142107Z 15012KT 08/M01 A3028 RMK A01 T00751011  RH  055%=      5-min Rain = 0
KTR1 142108Z 16013KT 08/M01 A3028 RMK A01 T00771010  RH  054%=      5-min Rain = 0
KTR1 142109Z 17011KT 08/M02 A3028 RMK A01 T00761017  RH  052%=      5-min Rain = 0
KTR1 142110Z 16009KT 07/M02 A3028 RMK A01 T00741019  RH  052%=      5-min Rain = 0
KTR1 142111Z 15009KT 07/M02 A3028 RMK A01 T00741017  RH  052%=      5-min Rain = 0
KTR1 142112Z 16009KT 08/M01 A3028 RMK A01 T00751013  RH  054%=      5-min Rain = 0
KTR1 142113Z 17007KT 08/M02 A3028 RMK A01 T00761018  RH  051%=      5-min Rain = 0
KTR1 142114Z 17007KT 08/M02 A3027 RMK A01 T00761019  RH  051%=      5-min Rain = 0
KTR1 142115Z 18009KT 08/M02 A3027 RMK A01 T00761016  RH  052%=      5-min Rain = 0
KTR1 142116Z 18009G14KT 08/M02 A3027 RMK A01 T00771016  RH  052%=      5-min Rain = 0
KTR1 142117Z 17012KT 08/M01 A3027 RMK A01 T00791014  RH  052%=      5-min Rain = 0
KTR1 142118Z 18013KT 08/M02 A3027 RMK A01 T00791015  RH  051%=      5-min Rain = 0
KTR1 142119Z 18012KT 08/M02 A3027 RMK A01 T00781018  RH  051%=      5-min Rain = 0
KTR1 142120Z 17012KT 08/M01 A3027 RMK A01 T00771014  RH  052%=      5-min Rain = 0
KTR1 142121Z 17010KT 08/M02 A3027 RMK A01 T00781015  RH  052%=      5-min Rain = 0
KTR1 142122Z 17010KT 08/M01 A3027 RMK A01 T00791014  RH  052%=      5-min Rain = 0
KTR1 142123Z 19012KT 08/M02 A3027 RMK A01 T00781018  RH  051%=      5-min Rain = 0
KTR1 142124Z 19012KT 08/M02 A3027 RMK A01 T00781015  RH  052%=      5-min Rain = 0
KTR1 142125Z 19010KT 08/M02 A3027 RMK A01 T00781017  RH  051%=      5-min Rain = 0
KTR1 142126Z 19010KT 08/M01 A3027 RMK A01 T00781014  RH  052%=      5-min Rain = 0
KTR1 142127Z 18011KT 08/M01 A3027 RMK A01 T00791014  RH  052%=      5-min Rain = 0
KTR1 142128Z 19010KT 08/M01 A3027 RMK A01 T00801010  RH  053%=      5-min Rain = 0
KTR1 142129Z 17011KT 08/M01 A3027 RMK A01 T00811012  RH  052%=      5-min Rain = 0
KTR1 142130Z 16011KT 08/M01 A3026 RMK A01 T00811012  RH  052%=      5-min Rain = 0
KTR1 142131Z 15010KT 08/M01 A3026 RMK A01 T00811010  RH  053%=      5-min Rain = 0
KTR1 142132Z 17010KT 08/M01 A3026 RMK A01 T00821010  RH  052%=      5-min Rain = 0
KTR1 142133Z 17011KT 08/M01 A3026 RMK A01 T00821012  RH  051%=      5-min Rain = 0
KTR1 142134Z 18011KT 08/M01 A3026 RMK A01 T00821010  RH  052%=      5-min Rain = 0
KTR1 142135Z 18012KT 08/M01 A3026 RMK A01 T00821012  RH  052%=      5-min Rain = 0
KTR1 142136Z 18013KT 08/M01 A3026 RMK A01 T00821011  RH  052%=      5-min Rain = 0
KTR1 142137Z 17014KT 08/M01 A3026 RMK A01 T00821013  RH  051%=      5-min Rain = 0
KTR1 142138Z 17011KT 08/M02 A3026 RMK A01 T00801016  RH  051%=      5-min Rain = 0
KTR1 142139Z 17011KT 08/M02 A3026 RMK A01 T00791015  RH  052%=      5-min Rain = 0
KTR1 142140Z 17009KT 08/M02 A3026 RMK A01 T00791015  RH  051%=      5-min Rain = 0
KTR1 142141Z 18010KT 08/M01 A3026 RMK A01 T00791011  RH  053%=      5-min Rain = 0
KTR1 142142Z 19008KT 08/M01 A3026 RMK A01 T00811012  RH  052%=      5-min Rain = 0
KTR1 142143Z 19008KT 08/M01 A3026 RMK A01 T00821013  RH  051%=      5-min Rain = 0
KTR1 142144Z 19008KT 08/M01 A3026 RMK A01 T00821011  RH  052%=      5-min Rain = 0
KTR1 142145Z 19007KT 08/M01 A3026 RMK A01 T00831012  RH  051%=      5-min Rain = 0
KTR1 142146Z 20007KT 08/M01 A3026 RMK A01 T00821014  RH  050%=      5-min Rain = 0
KTR1 142147Z 19008KT 08/M02 A3026 RMK A01 T00821018  RH  049%=      5-min Rain = 0
KTR1 142148Z 16010KT 08/M01 A3026 RMK A01 T00811009  RH  053%=      5-min Rain = 0
KTR1 142149Z 16012KT 08/M01 A3026 RMK A01 T00821008  RH  053%=      5-min Rain = 0
KTR1 142150Z 15011KT 08/M01 A3026 RMK A01 T00831008  RH  053%=      5-min Rain = 0
KTR1 142151Z 15010KT 08/M00 A3026 RMK A01 T00841004  RH  054%=      5-min Rain = 0
KTR1 142152Z 16010KT 09/00 A3026 RMK A01 T00870002  RH  055%=      5-min Rain = 0
KTR1 142153Z 16012KT 09/M00 A3026 RMK A01 T00891004  RH  052%=      5-min Rain = 0
KTR1 142154Z 16009KT 09/M01 A3026 RMK A01 T00871010  RH  051%=      5-min Rain = 0
KTR1 142155Z 16010KT 09/M01 A3025 RMK A01 T00851013  RH  050%=      5-min Rain = 0
KTR1 142156Z 17011KT 08/M01 A3025 RMK A01 T00841010  RH  051%=      5-min Rain = 0
KTR1 142157Z 18009KT 08/M01 A3025 RMK A01 T00841012  RH  051%=      5-min Rain = 0
KTR1 142158Z 18008KT 08/M01 A3025 RMK A01 T00831012  RH  051%=      5-min Rain = 0
KTR1 142159Z 17010KT 08/M01 A3025 RMK A01 T00831008  RH  053%=      5-min Rain = 0
KTR1 142200Z 16009KT 09/M01 A3025 RMK A01 T00851010  RH  051%=      5-min Rain = 0
KTR1 142201Z 17010KT 08/M01 A3025 RMK A01 T00841013  RH  051%=      5-min Rain = 0
KTR1 142202Z 17009KT 08/M01 A3025 RMK A01 T00841008  RH  052%=      5-min Rain = 0
KTR1 142203Z 16011KT 09/M00 A3025 RMK A01 T00861003  RH  053%=      5-min Rain = 0
KTR1 142204Z 17012KT 09/M01 A3025 RMK A01 T00871005  RH  052%=      5-min Rain = 0
KTR1 142205Z 17012KT 09/M01 A3025 RMK A01 T00871005  RH  052%=      5-min Rain = 0
KTR1 142206Z 17011KT 09/M01 A3025 RMK A01 T00871009  RH  051%=      5-min Rain = 0
KTR1 142207Z 17012KT 09/M00 A3025 RMK A01 T00861003  RH  053%=      5-min Rain = 0
KTR1 142208Z 16012KT 09/M01 A3025 RMK A01 T00871006  RH  052%=      5-min Rain = 0
KTR1 142209Z 16010KT 09/M00 A3025 RMK A01 T00871003  RH  053%=      5-min Rain = 0
KTR1 142210Z 17012KT 09/M00 A3025 RMK A01 T00881004  RH  052%=      5-min Rain = 0
KTR1 142211Z 17011KT 09/M01 A3025 RMK A01 T00881005  RH  052%=      5-min Rain = 0
KTR1 142212Z 17012KT 09/M01 A3025 RMK A01 T00881005  RH  052%=      5-min Rain = 0
KTR1 142213Z 18010KT 09/M01 A3025 RMK A01 T00881007  RH  051%=      5-min Rain = 0
KTR1 142214Z 18010KT 09/M01 A3025 RMK A01 T00871007  RH  051%=      5-min Rain = 0
KTR1 142215Z 15011KT 09/M01 A3025 RMK A01 T00871006  RH  052%=      5-min Rain = 0
KTR1 142216Z 16011KT 09/M00 A3025 RMK A01 T00881004  RH  053%=      5-min Rain = 0
KTR1 142217Z 16010KT 09/M01 A3025 RMK A01 T00871009  RH  051%=      5-min Rain = 0
KTR1 142218Z 16009KT 09/M01 A3025 RMK A01 T00871009  RH  051%=      5-min Rain = 0
KTR1 142219Z 15011KT 09/M01 A3024 RMK A01 T00861009  RH  051%=      5-min Rain = 0
KTR1 142220Z 15010KT 09/M01 A3024 RMK A01 T00861010  RH  051%=      5-min Rain = 0
KTR1 142221Z 16009KT 09/M01 A3024 RMK A01 T00871006  RH  052%=      5-min Rain = 0
KTR1 142222Z 16010KT 09/M01 A3024 RMK A01 T00881006  RH  052%=      5-min Rain = 0
KTR1 142223Z 17007KT 09/M01 A3024 RMK A01 T00881008  RH  051%=      5-min Rain = 0
KTR1 142224Z 19008KT 09/M01 A3024 RMK A01 T00881007  RH  051%=      5-min Rain = 0
KTR1 142225Z 19010KT 09/M01 A3024 RMK A01 T00881007  RH  051%=      5-min Rain = 0
KTR1 142226Z 19011KT 09/M01 A3024 RMK A01 T00881006  RH  052%=      5-min Rain = 0
KTR1 142227Z 18009KT 09/M01 A3024 RMK A01 T00881008  RH  051%=      5-min Rain = 0
KTR1 142228Z 19010KT 09/M00 A3024 RMK A01 T00881004  RH  052%=      5-min Rain = 0
KTR1 142229Z 19010KT 09/00 A3024 RMK A01 T00890003  RH  055%=      5-min Rain = 0
KTR1 142230Z 20011KT 09/M00 A3024 RMK A01 T00911004  RH  051%=      5-min Rain = 0
KTR1 142231Z 20010KT 09/M01 A3024 RMK A01 T00891008  RH  050%=      5-min Rain = 0
KTR1 142232Z 19009KT 09/M00 A3024 RMK A01 T00891004  RH  052%=      5-min Rain = 0
KTR1 142233Z 19009KT 09/M01 A3024 RMK A01 T00891005  RH  052%=      5-min Rain = 0
KTR1 142234Z 18009KT 09/00 A3024 RMK A01 T009100-0  RH  053%=      5-min Rain = 0
KTR1 142235Z 17012KT 09/M00 A3024 RMK A01 T00911004  RH  051%=      5-min Rain = 0
KTR1 142236Z 17011KT 09/M01 A3024 RMK A01 T00901005  RH  051%=      5-min Rain = 0
KTR1 142237Z 16011KT 09/M01 A3024 RMK A01 T00891007  RH  051%=      5-min Rain = 0
KTR1 142238Z 17010KT 09/M00 A3024 RMK A01 T00891003  RH  053%=      5-min Rain = 0
KTR1 142239Z 17009KT 09/M01 A3024 RMK A01 T00891005  RH  052%=      5-min Rain = 0
KTR1 142240Z 17008KT 09/M01 A3024 RMK A01 T00891007  RH  051%=      5-min Rain = 0
KTR1 142241Z 17008KT 09/M00 A3024 RMK A01 T00901004  RH  052%=      5-min Rain = 0
KTR1 142242Z 18008KT 09/M00 A3023 RMK A01 T00911003  RH  052%=      5-min Rain = 0
KTR1 142243Z 16008KT 09/M00 A3023 RMK A01 T00911002  RH  052%=      5-min Rain = 0
KTR1 142244Z 17010KT 09/00 A3023 RMK A01 T00920002  RH  053%=      5-min Rain = 0
KTR1 142245Z 18010KT 09/00 A3023 RMK A01 T00930002  RH  053%=      5-min Rain = 0
KTR1 142246Z 18011KT 09/M00 A3023 RMK A01 T00931002  RH  052%=      5-min Rain = 0
KTR1 142247Z 19011KT 09/00 A3023 RMK A01 T00920001  RH  053%=      5-min Rain = 0
KTR1 142248Z 19010KT 09/M00 A3023 RMK A01 T00921001  RH  052%=      5-min Rain = 0
KTR1 142249Z 18009KT 09/M00 A3023 RMK A01 T00921003  RH  051%=      5-min Rain = 0
KTR1 142250Z 19009KT 09/00 A3023 RMK A01 T00920000  RH  053%=      5-min Rain = 0
KTR1 142251Z 19010KT 09/00 A3023 RMK A01 T00920000  RH  053%=      5-min Rain = 0
KTR1 142252Z 17010KT 09/00 A3023 RMK A01 T00920000  RH  053%=      5-min Rain = 0
KTR1 142253Z 17011KT 09/00 A3023 RMK A01 T00920001  RH  053%=      5-min Rain = 0
KTR1 142254Z 17011KT 09/00 A3023 RMK A01 T00920001  RH  053%=      5-min Rain = 0
KTR1 142255Z 18012KT 09/00 A3023 RMK A01 T00930001  RH  053%=      5-min Rain = 0
KTR1 142256Z 17011KT 09/M00 A3023 RMK A01 T00921003  RH  051%=      5-min Rain = 0
KTR1 142257Z 18009KT 09/00 A3023 RMK A01 T00920000  RH  053%=      5-min Rain = 0
KTR1 142258Z 18008KT 09/M00 A3023 RMK A01 T00921003  RH  052%=      5-min Rain = 0
KTR1 142259Z 17008KT 09/M00 A3023 RMK A01 T00921004  RH  051%=      5-min Rain = 0
KTR1 142300Z 17006KT 09/00 A3023 RMK A01 T00920001  RH  053%=      5-min Rain = 0
KTR1 142301Z 16011KT 09/00 A3022 RMK A01 T00920004  RH  054%=      5-min Rain = 0
KTR1 142302Z 17010KT 09/01 A3022 RMK A01 T00930008  RH  055%=      5-min Rain = 0
KTR1 142303Z 17010KT 09/01 A3022 RMK A01 T00940008  RH  055%=      5-min Rain = 0
KTR1 142304Z 17009KT 09/01 A3022 RMK A01 T00940005  RH  054%=      5-min Rain = 0
KTR1 142305Z 17011KT 09/00 A3022 RMK A01 T00940003  RH  053%=      5-min Rain = 0
KTR1 142306Z 17009KT 09/00 A3022 RMK A01 T009400-0  RH  052%=      5-min Rain = 0
KTR1 142307Z 19008KT 09/00 A3022 RMK A01 T00930004  RH  054%=      5-min Rain = 0
KTR1 142308Z 18008KT 09/01 A3022 RMK A01 T00940008  RH  055%=      5-min Rain = 0
KTR1 142309Z 18007KT 09/01 A3022 RMK A01 T00940008  RH  055%=      5-min Rain = 0
KTR1 142310Z 18007KT 10/01 A3022 RMK A01 T00950006  RH  054%=      5-min Rain = 0
KTR1 142311Z 18009KT 10/00 A3022 RMK A01 T00950001  RH  052%=      5-min Rain = 0
KTR1 142312Z 18008KT 10/00 A3022 RMK A01 T00950001  RH  052%=      5-min Rain = 0
KTR1 142313Z 17009KT 09/00 A3022 RMK A01 T00940002  RH  053%=      5-min Rain = 0
KTR1 142314Z 16010KT 09/00 A3022 RMK A01 T00940004  RH  053%=      5-min Rain = 0
KTR1 142315Z 15011KT 09/00 A3022 RMK A01 T00940003  RH  053%=      5-min Rain = 0
KTR1 142316Z 15011KT 09/00 A3022 RMK A01 T00940001  RH  052%=      5-min Rain = 0
KTR1 142317Z 15011KT 09/M00 A3022 RMK A01 T00941001  RH  051%=      5-min Rain = 0
KTR1 142318Z 15013KT 09/M00 A3022 RMK A01 T00941001  RH  051%=      5-min Rain = 0
KTR1 142319Z 15011KT 09/00 A3022 RMK A01 T009400-0  RH  052%=      5-min Rain = 0
KTR1 142320Z 15009KT 09/00 A3022 RMK A01 T00940003  RH  053%=      5-min Rain = 0
KTR1 142321Z 16011KT 09/00 A3022 RMK A01 T00940002  RH  053%=      5-min Rain = 0
KTR1 142322Z 18008KT 09/00 A3022 RMK A01 T00940004  RH  054%=      5-min Rain = 0
KTR1 142323Z 18009KT 09/01 A3022 RMK A01 T00940006  RH  054%=      5-min Rain = 0
KTR1 142324Z 17010KT 09/00 A3022 RMK A01 T00940004  RH  053%=      5-min Rain = 0
KTR1 142325Z 17009KT 09/00 A3022 RMK A01 T00940004  RH  053%=      5-min Rain = 0
KTR1 142326Z 16008KT 09/01 A3022 RMK A01 T00940005  RH  054%=      5-min Rain = 0
KTR1 142327Z 16010KT 09/00 A3022 RMK A01 T00940004  RH  054%=      5-min Rain = 0
KTR1 142328Z 16010KT 09/00 A3022 RMK A01 T00940004  RH  053%=      5-min Rain = 0
KTR1 142329Z 16011KT 09/00 A3022 RMK A01 T00930002  RH  053%=      5-min Rain = 0
KTR1 142330Z 16011KT 09/00 A3021 RMK A01 T00930000  RH  052%=      5-min Rain = 0
KTR1 142331Z 15009KT 09/00 A3021 RMK A01 T00930004  RH  054%=      5-min Rain = 0
KTR1 142332Z 16010KT 09/01 A3021 RMK A01 T00930005  RH  054%=      5-min Rain = 0
KTR1 142333Z 16010KT 09/00 A3021 RMK A01 T00930004  RH  054%=      5-min Rain = 0
KTR1 142334Z 16008KT 09/01 A3021 RMK A01 T00920006  RH  055%=      5-min Rain = 0
KTR1 142335Z 16009KT 09/01 A3021 RMK A01 T00920009  RH  056%=      5-min Rain = 0
KTR1 142336Z 15008KT 09/01 A3021 RMK A01 T00920006  RH  055%=      5-min Rain = 0
KTR1 142337Z 16008KT 09/01 A3021 RMK A01 T00920009  RH  056%=      5-min Rain = 0
KTR1 142338Z 16009KT 09/01 A3021 RMK A01 T00920007  RH  055%=      5-min Rain = 0
KTR1 142339Z 17007KT 09/01 A3021 RMK A01 T00920005  RH  055%=      5-min Rain = 0
KTR1 142340Z 17009KT 09/01 A3021 RMK A01 T00920007  RH  055%=      5-min Rain = 0
KTR1 142341Z 16008KT 09/00 A3021 RMK A01 T00920003  RH  054%=      5-min Rain = 0
KTR1 142342Z 16008KT 09/00 A3021 RMK A01 T00920003  RH  054%=      5-min Rain = 0
KTR1 142343Z 15009KT 09/00 A3021 RMK A01 T00920004  RH  054%=      5-min Rain = 0
KTR1 142344Z 16009KT 09/00 A3021 RMK A01 T00920003  RH  054%=      5-min Rain = 0
KTR1 142345Z 16010KT 09/00 A3021 RMK A01 T00920003  RH  054%=      5-min Rain = 0
KTR1 142346Z 16009KT 09/00 A3021 RMK A01 T00920001  RH  053%=      5-min Rain = 0
KTR1 142347Z 16009KT 09/00 A3021 RMK A01 T00920004  RH  054%=      5-min Rain = 0
KTR1 142348Z 16009KT 09/00 A3021 RMK A01 T00920004  RH  054%=      5-min Rain = 0
KTR1 142349Z 16009KT 09/00 A3021 RMK A01 T00910004  RH  054%=      5-min Rain = 0
KTR1 142350Z 16009KT 09/01 A3021 RMK A01 T00910005  RH  055%=      5-min Rain = 0
KTR1 142351Z 16008KT 09/01 A3021 RMK A01 T00910009  RH  057%=      5-min Rain = 0
KTR1 142352Z 16008KT 09/01 A3021 RMK A01 T00900008  RH  056%=      5-min Rain = 0
KTR1 142353Z 16008KT 09/01 A3021 RMK A01 T00900006  RH  056%=      5-min Rain = 0
KTR1 142354Z 16007KT 09/01 A3021 RMK A01 T00900009  RH  057%=      5-min Rain = 0
KTR1 142355Z 16007KT 09/01 A3021 RMK A01 T00890009  RH  057%=      5-min Rain = 0
KTR1 142356Z 15007KT 09/01 A3021 RMK A01 T00890010  RH  058%=      5-min Rain = 0
KTR1 142357Z 15008KT 09/01 A3021 RMK A01 T00880010  RH  058%=      5-min Rain = 0
KTR1 142358Z 16008KT 09/01 A3021 RMK A01 T00880007  RH  057%=      5-min Rain = 0
KTR1 142359Z 15009KT 09/01 A3021 RMK A01 T00880006  RH  057%=      5-min Rain = 0
KTR1 150000Z 15009KT 09/00 A3021 RMK A01 T00880004  RH  056%=      5-min Rain = 0
KTR1 150001Z 15008KT 09/01 A3021 RMK A01 T00880005  RH  056%=      5-min Rain = 0
KTR1 150002Z 15008KT 09/01 A3021 RMK A01 T00880006  RH  057%=      5-min Rain = 0
KTR1 150003Z 15008KT 09/01 A3021 RMK A01 T00870007  RH  057%=      5-min Rain = 0
KTR1 150004Z 15007KT 09/01 A3021 RMK A01 T00870006  RH  057%=      5-min Rain = 0
KTR1 150005Z 15008KT 09/01 A3021 RMK A01 T00860006  RH  057%=      5-min Rain = 0
KTR1 150006Z 15008KT 09/01 A3021 RMK A01 T00850006  RH  057%=      5-min Rain = 0
KTR1 150007Z 15008KT 09/01 A3021 RMK A01 T00850006  RH  057%=      5-min Rain = 0
KTR1 150008Z 15007KT 08/01 A3021 RMK A01 T00840006  RH  058%=      5-min Rain = 0
KTR1 150009Z 15007KT 08/01 A3021 RMK A01 T00840008  RH  059%=      5-min Rain = 0
KTR1 150010Z 14008KT 08/01 A3021 RMK A01 T00830007  RH  059%=      5-min Rain = 0
KTR1 150011Z 15008KT 08/01 A3021 RMK A01 T00820007  RH  059%=      5-min Rain = 0
KTR1 150012Z 14008KT 08/01 A3021 RMK A01 T00820006  RH  059%=      5-min Rain = 0
KTR1 150013Z 15007KT 08/01 A3021 RMK A01 T00810006  RH  059%=      5-min Rain = 0
KTR1 150014Z 15008KT 08/01 A3021 RMK A01 T00810007  RH  060%=      5-min Rain = 0
KTR1 150015Z 15008KT 08/01 A3021 RMK A01 T00800006  RH  060%=      5-min Rain = 0
KTR1 150016Z 15008KT 08/01 A3021 RMK A01 T00800005  RH  059%=      5-min Rain = 0
KTR1 150017Z 15007KT 08/01 A3021 RMK A01 T00800005  RH  059%=      5-min Rain = 0
KTR1 150018Z 15007KT 08/01 A3021 RMK A01 T00800006  RH  060%=      5-min Rain = 0
KTR1 150019Z 14007KT 08/01 A3021 RMK A01 T00790007  RH  060%=      5-min Rain = 0
KTR1 150020Z 14007KT 08/01 A3021 RMK A01 T00780007  RH  061%=      5-min Rain = 0
KTR1 150021Z 14006KT 08/01 A3021 RMK A01 T00770008  RH  062%=      5-min Rain = 0
KTR1 150022Z 14006KT 08/01 A3021 RMK A01 T00750008  RH  062%=      5-min Rain = 0
KTR1 150023Z 14006KT 07/01 A3021 RMK A01 T00740008  RH  063%=      5-min Rain = 0
KTR1 150024Z 14007KT 07/01 A3021 RMK A01 T00730008  RH  063%=      5-min Rain = 0
KTR1 150025Z 14006KT 07/01 A3021 RMK A01 T00730008  RH  063%=      5-min Rain = 0
KTR1 150026Z 14007KT 07/01 A3021 RMK A01 T00720008  RH  064%=      5-min Rain = 0
KTR1 150027Z 14007KT 07/01 A302 RMK A01 T00710007  RH  064%=      5-min Rain = 0
KTR1 150028Z 14007KT 07/01 A302 RMK A01 T00710007  RH  064%=      5-min Rain = 0
KTR1 150029Z 14007KT 07/01 A302 RMK A01 T00700007  RH  064%=      5-min Rain = 0
KTR1 150030Z 14007KT 07/01 A302 RMK A01 T00700007  RH  064%=      5-min Rain = 0
KTR1 150031Z 14007KT 07/01 A302 RMK A01 T00690007  RH  064%=      5-min Rain = 0
KTR1 150032Z 14007KT 07/01 A302 RMK A01 T00680006  RH  065%=      5-min Rain = 0
KTR1 150033Z 14007KT 07/01 A302 RMK A01 T00680006  RH  065%=      5-min Rain = 0
KTR1 150034Z 13007KT 07/01 A302 RMK A01 T00670005  RH  065%=      5-min Rain = 0
KTR1 150035Z 13007KT 07/01 A302 RMK A01 T00670005  RH  064%=      5-min Rain = 0
KTR1 150036Z 13007KT 07/01 A302 RMK A01 T00670005  RH  064%=      5-min Rain = 0
KTR1 150037Z 13008KT 07/01 A302 RMK A01 T00670005  RH  065%=      5-min Rain = 0
KTR1 150038Z 13007KT 07/01 A302 RMK A01 T00660005  RH  065%=      5-min Rain = 0
KTR1 150039Z 13007KT 07/00 A302 RMK A01 T00660004  RH  065%=      5-min Rain = 0
KTR1 150040Z 13007KT 07/00 A302 RMK A01 T00660004  RH  064%=      5-min Rain = 0
KTR1 150041Z 13007KT 07/00 A302 RMK A01 T00660004  RH  065%=      5-min Rain = 0
KTR1 150042Z 13007KT 07/00 A302 RMK A01 T00650004  RH  065%=      5-min Rain = 0
KTR1 150043Z 13007KT 06/00 A302 RMK A01 T00640004  RH  065%=      5-min Rain = 0
KTR1 150044Z 13006KT 06/00 A302 RMK A01 T00640003  RH  065%=      5-min Rain = 0
KTR1 150045Z 13006KT 06/00 A302 RMK A01 T00630003  RH  065%=      5-min Rain = 0
KTR1 150046Z 13006KT 06/00 A302 RMK A01 T00630003  RH  066%=      5-min Rain = 0
KTR1 150047Z 13006KT 06/00 A302 RMK A01 T00620003  RH  066%=      5-min Rain = 0
KTR1 150048Z 13006KT 06/00 A302 RMK A01 T00620003  RH  066%=      5-min Rain = 0
KTR1 150049Z 13007KT 06/00 A302 RMK A01 T00620003  RH  066%=      5-min Rain = 0
KTR1 150050Z 13007KT 06/00 A302 RMK A01 T00610003  RH  066%=      5-min Rain = 0
KTR1 150051Z 13007KT 06/00 A302 RMK A01 T00610003  RH  066%=      5-min Rain = 0
KTR1 150052Z 13007KT 06/00 A302 RMK A01 T00610002  RH  066%=      5-min Rain = 0
KTR1 150053Z 13007KT 06/00 A302 RMK A01 T00610002  RH  066%=      5-min Rain = 0
KTR1 150054Z 12007KT 06/00 A302 RMK A01 T00610003  RH  066%=      5-min Rain = 0
KTR1 150055Z 13007KT 06/00 A302 RMK A01 T00610003  RH  066%=      5-min Rain = 0
KTR1 150056Z 13007KT 06/00 A302 RMK A01 T00600003  RH  067%=      5-min Rain = 0
KTR1 150057Z 13007KT 06/00 A302 RMK A01 T00600003  RH  067%=      5-min Rain = 0
KTR1 150058Z 13007KT 06/00 A302 RMK A01 T00600003  RH  067%=      5-min Rain = 0
KTR1 150059Z 13007KT 06/00 A302 RMK A01 T00590002  RH  067%=      5-min Rain = 0
KTR1 150100Z 13007KT 06/00 A302 RMK A01 T00600003  RH  067%=      5-min Rain = 0
KTR1 150101Z 12006KT 06/00 A302 RMK A01 T00590003  RH  067%=      5-min Rain = 0
KTR1 150102Z 12006KT 06/00 A302 RMK A01 T00580002  RH  067%=      5-min Rain = 0
KTR1 150103Z 12006KT 06/00 A302 RMK A01 T00580002  RH  067%=      5-min Rain = 0
KTR1 150104Z 12006KT 06/00 A302 RMK A01 T00580002  RH  067%=      5-min Rain = 0
KTR1 150105Z 12006KT 06/00 A302 RMK A01 T00570002  RH  067%=      5-min Rain = 0
KTR1 150106Z 12006KT 06/00 A302 RMK A01 T00570002  RH  067%=      5-min Rain = 0
KTR1 150107Z 12006KT 06/00 A302 RMK A01 T00570001  RH  067%=      5-min Rain = 0
KTR1 150108Z 12006KT 06/00 A302 RMK A01 T00570001  RH  067%=      5-min Rain = 0
KTR1 150109Z 12006KT 06/00 A302 RMK A01 T00570001  RH  067%=      5-min Rain = 0
KTR1 150110Z 12006KT 06/00 A302 RMK A01 T00570000  RH  067%=      5-min Rain = 0
KTR1 150111Z 12006KT 06/00 A302 RMK A01 T00570000  RH  067%=      5-min Rain = 0
KTR1 150112Z 12006KT 06/00 A302 RMK A01 T005700-0  RH  067%=      5-min Rain = 0
KTR1 150113Z 12006KT 06/00 A302 RMK A01 T005600-0  RH  067%=      5-min Rain = 0
KTR1 150114Z 12006KT 06/00 A302 RMK A01 T005600-0  RH  067%=      5-min Rain = 0
KTR1 150115Z 12006KT 06/00 A302 RMK A01 T005500-0  RH  067%=      5-min Rain = 0
KTR1 150116Z 13006KT 06/00 A302 RMK A01 T005500-0  RH  068%=      5-min Rain = 0
KTR1 150117Z 13006KT 05/00 A302 RMK A01 T005400-0  RH  068%=      5-min Rain = 0
KTR1 150118Z 13006KT 05/00 A302 RMK A01 T005400-0  RH  068%=      5-min Rain = 0
KTR1 150119Z 13006KT 05/00 A302 RMK A01 T005300-0  RH  068%=      5-min Rain = 0
KTR1 150120Z 13006KT 05/00 A302 RMK A01 T00530000  RH  069%=      5-min Rain = 0
KTR1 150121Z 13006KT 05/00 A302 RMK A01 T00530000  RH  069%=      5-min Rain = 0
KTR1 150122Z 13006KT 05/00 A302 RMK A01 T00520000  RH  069%=      5-min Rain = 0
KTR1 150123Z 13006KT 05/00 A302 RMK A01 T00520000  RH  069%=      5-min Rain = 0
KTR1 150124Z 13006KT 05/00 A302 RMK A01 T00510001  RH  070%=      5-min Rain = 0
KTR1 150125Z 13005KT 05/00 A302 RMK A01 T00500000  RH  070%=      5-min Rain = 0
KTR1 150126Z 13005KT 05/00 A302 RMK A01 T00500000  RH  070%=      5-min Rain = 0
KTR1 150127Z 13005KT 05/00 A302 RMK A01 T00500000  RH  070%=      5-min Rain = 0
KTR1 150128Z 13005KT 05/00 A302 RMK A01 T005000-0  RH  070%=      5-min Rain = 0
KTR1 150129Z 13005KT 05/00 A302 RMK A01 T00500000  RH  070%=      5-min Rain = 0
KTR1 150130Z 13005KT 05/00 A302 RMK A01 T00500000  RH  070%=      5-min Rain = 0
KTR1 150131Z 13006KT 05/00 A302 RMK A01 T00500000  RH  071%=      5-min Rain = 0
KTR1 150132Z 13005KT 05/00 A302 RMK A01 T00490001  RH  071%=      5-min Rain = 0
KTR1 150133Z 13005KT 05/00 A302 RMK A01 T00480000  RH  071%=      5-min Rain = 0
KTR1 150134Z 13005KT 05/00 A302 RMK A01 T00480000  RH  071%=      5-min Rain = 0
KTR1 150135Z 13005KT 05/00 A302 RMK A01 T004800-0  RH  071%=      5-min Rain = 0
KTR1 150136Z 13005KT 05/00 A302 RMK A01 T00480000  RH  071%=      5-min Rain = 0
KTR1 150137Z 13005KT 05/00 A302 RMK A01 T00480000  RH  071%=      5-min Rain = 0
KTR1 150138Z 13005KT 05/00 A302 RMK A01 T00480000  RH  071%=      5-min Rain = 0
KTR1 150139Z 13005KT 05/00 A302 RMK A01 T00480000  RH  071%=      5-min Rain = 0
KTR1 150140Z 13005KT 05/00 A302 RMK A01 T00480001  RH  072%=      5-min Rain = 0
KTR1 150141Z 14006KT 05/00 A302 RMK A01 T00480001  RH  072%=      5-min Rain = 0
KTR1 150142Z 13006KT 05/00 A302 RMK A01 T00480001  RH  072%=      5-min Rain = 0
KTR1 150143Z 14006KT 05/00 A302 RMK A01 T00480001  RH  072%=      5-min Rain = 0
KTR1 150144Z 14006KT 05/00 A302 RMK A01 T00480001  RH  072%=      5-min Rain = 0
KTR1 150145Z 14006KT 05/00 A302 RMK A01 T00480002  RH  072%=      5-min Rain = 0
KTR1 150146Z 14006KT 05/00 A302 RMK A01 T00490003  RH  072%=      5-min Rain = 0
KTR1 150147Z 14007KT 05/00 A302 RMK A01 T00510003  RH  071%=      5-min Rain = 0
KTR1 150148Z 14007KT 05/00 A302 RMK A01 T00530004  RH  071%=      5-min Rain = 0
KTR1 150149Z 14007KT 05/01 A302 RMK A01 T00540005  RH  071%=      5-min Rain = 0
KTR1 150150Z 15007KT 05/01 A302 RMK A01 T00540005  RH  070%=      5-min Rain = 0
KTR1 150151Z 15007KT 05/01 A302 RMK A01 T00540005  RH  071%=      5-min Rain = 0
KTR1 150152Z 15006KT 06/01 A302 RMK A01 T00550006  RH  071%=      5-min Rain = 0
KTR1 150153Z 14006KT 06/01 A302 RMK A01 T00550006  RH  071%=      5-min Rain = 0
KTR1 150154Z 15007KT 05/01 A302 RMK A01 T00540006  RH  071%=      5-min Rain = 0
KTR1 150155Z 15007KT 05/01 A302 RMK A01 T00540006  RH  071%=      5-min Rain = 0
KTR1 150156Z 15007KT 05/01 A302 RMK A01 T00540006  RH  071%=      5-min Rain = 0
KTR1 150157Z 15007KT 05/01 A302 RMK A01 T00540005  RH  071%=      5-min Rain = 0
KTR1 150158Z 15007KT 05/01 A302 RMK A01 T00540005  RH  071%=      5-min Rain = 0
KTR1 150159Z 15007KT 06/01 A302 RMK A01 T00550006  RH  071%=      5-min Rain = 0
KTR1 150200Z 15007KT 05/01 A302 RMK A01 T00540006  RH  071%=      5-min Rain = 0
KTR1 150201Z 15007KT 05/01 A302 RMK A01 T00540006  RH  071%=      5-min Rain = 0
KTR1 150202Z 15007KT 05/01 A302 RMK A01 T00540006  RH  071%=      5-min Rain = 0
KTR1 150203Z 15006KT 05/01 A302 RMK A01 T00530006  RH  072%=      5-min Rain = 0
KTR1 150204Z 15007KT 05/01 A302 RMK A01 T00520006  RH  073%=      5-min Rain = 0
KTR1 150205Z 16007KT 05/01 A302 RMK A01 T00510006  RH  073%=      5-min Rain = 0
KTR1 150206Z 15007KT 05/01 A302 RMK A01 T00510006  RH  073%=      5-min Rain = 0
KTR1 150207Z 15007KT 05/01 A302 RMK A01 T00510006  RH  073%=      5-min Rain = 0
KTR1 150208Z 15006KT 05/01 A302 RMK A01 T00510006  RH  072%=      5-min Rain = 0
KTR1 150209Z 15006KT 05/01 A302 RMK A01 T00510006  RH  073%=      5-min Rain = 0
KTR1 150210Z 16006KT 05/01 A302 RMK A01 T00500006  RH  073%=      5-min Rain = 0
KTR1 150211Z 15006KT 05/01 A302 RMK A01 T00490006  RH  074%=      5-min Rain = 0
KTR1 150212Z 15006KT 05/01 A302 RMK A01 T00490006  RH  074%=      5-min Rain = 0
KTR1 150213Z 15007KT 05/01 A302 RMK A01 T00480006  RH  074%=      5-min Rain = 0
KTR1 150214Z 15007KT 05/01 A302 RMK A01 T00480006  RH  074%=      5-min Rain = 0
KTR1 150215Z 16006KT 05/01 A302 RMK A01 T00470006  RH  075%=      5-min Rain = 0
KTR1 150216Z 16006KT 05/01 A302 RMK A01 T00470006  RH  075%=      5-min Rain = 0
KTR1 150217Z 16006KT 05/01 A302 RMK A01 T00470006  RH  075%=      5-min Rain = 0
KTR1 150218Z 16006KT 05/01 A302 RMK A01 T00460007  RH  076%=      5-min Rain = 0
KTR1 150219Z 16006KT 05/01 A302 RMK A01 T00450007  RH  076%=      5-min Rain = 0
KTR1 150220Z 16007KT 04/01 A302 RMK A01 T00440007  RH  077%=      5-min Rain = 0
KTR1 150221Z 16006KT 04/01 A302 RMK A01 T00430007  RH  077%=      5-min Rain = 0
KTR1 150222Z 16006KT 04/01 A302 RMK A01 T00430007  RH  078%=      5-min Rain = 0
KTR1 150223Z 17006KT 04/01 A302 RMK A01 T00420007  RH  078%=      5-min Rain = 0
KTR1 150224Z 17005KT 04/01 A302 RMK A01 T00420008  RH  078%=      5-min Rain = 0
KTR1 150225Z 17005KT 04/01 A302 RMK A01 T00410008  RH  079%=      5-min Rain = 0
KTR1 150226Z 17005KT 04/01 A302 RMK A01 T00400008  RH  080%=      5-min Rain = 0
KTR1 150227Z 17005KT 04/01 A302 RMK A01 T00390008  RH  080%=      5-min Rain = 0
KTR1 150228Z 17005KT 04/01 A302 RMK A01 T00380007  RH  080%=      5-min Rain = 0
KTR1 150229Z 18005KT 04/01 A302 RMK A01 T00370007  RH  080%=      5-min Rain = 0
KTR1 150230Z 17005KT 04/01 A302 RMK A01 T00360006  RH  081%=      5-min Rain = 0
KTR1 150231Z 17006KT 04/01 A302 RMK A01 T00360005  RH  081%=      5-min Rain = 0
KTR1 150232Z 17005KT 04/01 A302 RMK A01 T00350006  RH  081%=      5-min Rain = 0
KTR1 150233Z 17005KT 04/01 A302 RMK A01 T00350006  RH  081%=      5-min Rain = 0
KTR1 150234Z 18006KT 03/01 A302 RMK A01 T00340005  RH  081%=      5-min Rain = 0
KTR1 150235Z 17005KT 04/01 A302 RMK A01 T00350005  RH  081%=      5-min Rain = 0
KTR1 150236Z 18006KT 03/01 A302 RMK A01 T00340005  RH  081%=      5-min Rain = 0
KTR1 150237Z 18006KT 04/01 A302 RMK A01 T00350005  RH  081%=      5-min Rain = 0
KTR1 150238Z 17006KT 04/01 A302 RMK A01 T00350005  RH  081%=      5-min Rain = 0
KTR1 150239Z 17006KT 04/00 A302 RMK A01 T00350004  RH  080%=      5-min Rain = 0
KTR1 150240Z 18006KT 04/00 A302 RMK A01 T00350004  RH  080%=      5-min Rain = 0
KTR1 150241Z 18006KT 04/00 A302 RMK A01 T00360004  RH  080%=      5-min Rain = 0
KTR1 150242Z 17006KT 04/00 A302 RMK A01 T00360004  RH  080%=      5-min Rain = 0
KTR1 150243Z 17006KT 04/00 A302 RMK A01 T00360004  RH  079%=      5-min Rain = 0
KTR1 150244Z 17006KT 04/00 A302 RMK A01 T00360004  RH  079%=      5-min Rain = 0
KTR1 150245Z 17006KT 04/00 A302 RMK A01 T00360004  RH  079%=      5-min Rain = 0
KTR1 150246Z 17006KT 04/00 A302 RMK A01 T00360004  RH  079%=      5-min Rain = 0
KTR1 150247Z 17006KT 04/00 A302 RMK A01 T00360004  RH  079%=      5-min Rain = 0
KTR1 150248Z 17006KT 04/00 A302 RMK A01 T00350003  RH  080%=      5-min Rain = 0
KTR1 150249Z 17006KT 04/00 A302 RMK A01 T00350003  RH  080%=      5-min Rain = 0
KTR1 150250Z 17006KT 03/00 A3019 RMK A01 T00340004  RH  080%=      5-min Rain = 0
KTR1 150251Z 17006KT 03/00 A3019 RMK A01 T00340004  RH  080%=      5-min Rain = 0
KTR1 150252Z 17006KT 03/00 A3019 RMK A01 T00340004  RH  081%=      5-min Rain = 0
KTR1 150253Z 17006KT 03/00 A3019 RMK A01 T00340004  RH  081%=      5-min Rain = 0
KTR1 150254Z 17006KT 03/00 A3019 RMK A01 T00340004  RH  081%=      5-min Rain = 0
KTR1 150255Z 17006KT 03/00 A3019 RMK A01 T00340004  RH  081%=      5-min Rain = 0
KTR1 150256Z 17006KT 03/00 A3019 RMK A01 T00340004  RH  081%=      5-min Rain = 0
KTR1 150257Z 17006KT 03/00 A3019 RMK A01 T00340004  RH  081%=      5-min Rain = 0
KTR1 150258Z 17006KT 03/00 A3019 RMK A01 T00330004  RH  081%=      5-min Rain = 0
KTR1 150259Z 17006KT 03/00 A3019 RMK A01 T00330004  RH  081%=      5-min Rain = 0
KTR1 150300Z 17006KT 03/00 A3019 RMK A01 T00330004  RH  082%=      5-min Rain = 0
KTR1 150301Z 17006KT 03/00 A3019 RMK A01 T00330004  RH  082%=      5-min Rain = 0
KTR1 150302Z 17006KT 03/00 A3019 RMK A01 T00330004  RH  082%=      5-min Rain = 0
KTR1 150303Z 17006KT 03/00 A3019 RMK A01 T00330004  RH  082%=      5-min Rain = 0
KTR1 150304Z 17006KT 03/00 A3019 RMK A01 T00330004  RH  082%=      5-min Rain = 0
KTR1 150305Z 17006KT 03/00 A3019 RMK A01 T00330004  RH  082%=      5-min Rain = 0
KTR1 150306Z 17006KT 03/00 A3019 RMK A01 T00320004  RH  082%=      5-min Rain = 0
KTR1 150307Z 17006KT 03/00 A3019 RMK A01 T00320004  RH  082%=      5-min Rain = 0
KTR1 150308Z 17005KT 03/00 A3019 RMK A01 T00310004  RH  082%=      5-min Rain = 0
KTR1 150309Z 17005KT 03/00 A3019 RMK A01 T00310004  RH  083%=      5-min Rain = 0
KTR1 150310Z 17005KT 03/00 A3019 RMK A01 T00300004  RH  083%=      5-min Rain = 0
KTR1 150311Z 17005KT 03/00 A3019 RMK A01 T00300004  RH  083%=      5-min Rain = 0
KTR1 150312Z 17006KT 03/00 A3019 RMK A01 T00300004  RH  083%=      5-min Rain = 0
KTR1 150313Z 17006KT 03/00 A3019 RMK A01 T00300004  RH  083%=      5-min Rain = 0
KTR1 150314Z 17006KT 03/01 A3019 RMK A01 T00300005  RH  084%=      5-min Rain = 0
KTR1 150315Z 17005KT 03/01 A3019 RMK A01 T00300005  RH  084%=      5-min Rain = 0
KTR1 150316Z 17005KT 03/01 A3019 RMK A01 T00290005  RH  084%=      5-min Rain = 0
KTR1 150317Z 17005KT 03/01 A3019 RMK A01 T00290005  RH  084%=      5-min Rain = 0
KTR1 150318Z 17005KT 03/00 A3019 RMK A01 T00290004  RH  084%=      5-min Rain = 0
KTR1 150319Z 17005KT 03/01 A3019 RMK A01 T00290005  RH  084%=      5-min Rain = 0
KTR1 150320Z 17005KT 03/00 A3019 RMK A01 T00280004  RH  084%=      5-min Rain = 0
KTR1 150321Z 17005KT 03/00 A3019 RMK A01 T00280004  RH  084%=      5-min Rain = 0
KTR1 150322Z 17005KT 03/00 A3019 RMK A01 T00280004  RH  085%=      5-min Rain = 0
KTR1 150323Z 17005KT 03/00 A3019 RMK A01 T00280004  RH  085%=      5-min Rain = 0
KTR1 150324Z 17004KT 03/00 A3019 RMK A01 T00270004  RH  085%=      5-min Rain = 0
KTR1 150325Z 17005KT 03/00 A3019 RMK A01 T00270004  RH  085%=      5-min Rain = 0
KTR1 150326Z 17005KT 03/00 A3019 RMK A01 T00270004  RH  085%=      5-min Rain = 0
KTR1 150327Z 16005KT 03/00 A3019 RMK A01 T00270004  RH  085%=      5-min Rain = 0
KTR1 150328Z 16005KT 03/00 A3019 RMK A01 T00270004  RH  085%=      5-min Rain = 0
KTR1 150329Z 16005KT 03/00 A3019 RMK A01 T00270004  RH  085%=      5-min Rain = 0
KTR1 150330Z 16006KT 03/01 A3019 RMK A01 T00280005  RH  085%=      5-min Rain = 0
KTR1 150331Z 16006KT 03/01 A3019 RMK A01 T00280005  RH  085%=      5-min Rain = 0
KTR1 150332Z 16005KT 03/01 A3018 RMK A01 T00280005  RH  085%=      5-min Rain = 0
KTR1 150333Z 16006KT 03/01 A3018 RMK A01 T00290005  RH  084%=      5-min Rain = 0
KTR1 150334Z 16006KT 03/01 A3018 RMK A01 T00290005  RH  084%=      5-min Rain = 0
KTR1 150335Z 16007KT 03/01 A3018 RMK A01 T00290005  RH  084%=      5-min Rain = 0
KTR1 150336Z 16007KT 03/01 A3018 RMK A01 T00300005  RH  084%=      5-min Rain = 0
KTR1 150337Z 16007KT 03/00 A3018 RMK A01 T00300004  RH  083%=      5-min Rain = 0
KTR1 150338Z 16007KT 03/00 A3018 RMK A01 T00300004  RH  083%=      5-min Rain = 0
KTR1 150339Z 16007KT 03/01 A3018 RMK A01 T00310005  RH  083%=      5-min Rain = 0
KTR1 150340Z 16007KT 03/00 A3018 RMK A01 T00310004  RH  083%=      5-min Rain = 0
KTR1 150341Z 16007KT 03/00 A3018 RMK A01 T00310004  RH  083%=      5-min Rain = 0
KTR1 150342Z 16007KT 03/00 A3018 RMK A01 T00310004  RH  083%=      5-min Rain = 0
KTR1 150343Z 16008KT 03/00 A3018 RMK A01 T00310004  RH  082%=      5-min Rain = 0
KTR1 150344Z 16008KT 03/00 A3018 RMK A01 T00320004  RH  082%=      5-min Rain = 0
KTR1 150345Z 16008KT 03/01 A3018 RMK A01 T00320005  RH  082%=      5-min Rain = 0
KTR1 150346Z 16008KT 03/01 A3018 RMK A01 T00330005  RH  082%=      5-min Rain = 0
KTR1 150347Z 16008KT 03/01 A3018 RMK A01 T00330005  RH  082%=      5-min Rain = 0
KTR1 150348Z 16009KT 03/01 A3018 RMK A01 T00340005  RH  081%=      5-min Rain = 0
KTR1 150349Z 16009KT 03/01 A3018 RMK A01 T00340005  RH  081%=      5-min Rain = 0
KTR1 150350Z 16009KT 04/01 A3018 RMK A01 T00350005  RH  081%=      5-min Rain = 0
KTR1 150351Z 16009KT 04/01 A3018 RMK A01 T00360005  RH  080%=      5-min Rain = 0
KTR1 150352Z 16009KT 04/01 A3018 RMK A01 T00360005  RH  080%=      5-min Rain = 0
KTR1 150353Z 16009KT 04/01 A3018 RMK A01 T00370005  RH  080%=      5-min Rain = 0
KTR1 150354Z 16010KT 04/01 A3018 RMK A01 T00370005  RH  080%=      5-min Rain = 0
KTR1 150355Z 16009KT 04/01 A3018 RMK A01 T00380005  RH  079%=      5-min Rain = 0
KTR1 150356Z 16009KT 04/01 A3018 RMK A01 T00380005  RH  079%=      5-min Rain = 0
KTR1 150357Z 16009KT 04/01 A3018 RMK A01 T00380005  RH  079%=      5-min Rain = 0
KTR1 150358Z 16009KT 04/01 A3018 RMK A01 T00380006  RH  079%=      5-min Rain = 0
KTR1 150359Z 16009KT 04/01 A3018 RMK A01 T00390006  RH  079%=      5-min Rain = 0
KTR1 150400Z 16009KT 04/01 A3018 RMK A01 T00390006  RH  079%=      5-min Rain = 0
KTR1 150401Z 16009KT 04/01 A3018 RMK A01 T00390006  RH  079%=      5-min Rain = 0
KTR1 150402Z 16009KT 04/01 A3018 RMK A01 T00390006  RH  080%=      5-min Rain = 0
KTR1 150403Z 16009KT 04/01 A3018 RMK A01 T00390007  RH  080%=      5-min Rain = 0
KTR1 150404Z 16008KT 04/01 A3018 RMK A01 T00390007  RH  080%=      5-min Rain = 0
KTR1 150405Z 16009KT 04/01 A3018 RMK A01 T00390008  RH  080%=      5-min Rain = 0
KTR1 150406Z 17009KT 04/01 A3018 RMK A01 T00390008  RH  080%=      5-min Rain = 0
KTR1 150407Z 16008KT 04/01 A3018 RMK A01 T00400008  RH  080%=      5-min Rain = 0
KTR1 150408Z 16009KT 04/01 A3018 RMK A01 T00400008  RH  079%=      5-min Rain = 0
KTR1 150409Z 17009KT 04/01 A3018 RMK A01 T00400008  RH  079%=      5-min Rain = 0
KTR1 150410Z 16009KT 04/01 A3018 RMK A01 T00400008  RH  079%=      5-min Rain = 0
KTR1 150411Z 16009KT 04/01 A3018 RMK A01 T00400007  RH  079%=      5-min Rain = 0
KTR1 150412Z 17009KT 04/01 A3018 RMK A01 T00400008  RH  079%=      5-min Rain = 0
KTR1 150413Z 16009KT 04/01 A3018 RMK A01 T00400008  RH  079%=      5-min Rain = 0
KTR1 150414Z 16009KT 04/01 A3018 RMK A01 T00410008  RH  079%=      5-min Rain = 0
KTR1 150415Z 16010KT 04/01 A3018 RMK A01 T00410008  RH  079%=      5-min Rain = 0
KTR1 150416Z 16010KT 04/01 A3017 RMK A01 T00420008  RH  079%=      5-min Rain = 0
KTR1 150417Z 16010KT 04/01 A3017 RMK A01 T00430008  RH  078%=      5-min Rain = 0
KTR1 150418Z 16010KT 04/01 A3017 RMK A01 T00440008  RH  078%=      5-min Rain = 0
KTR1 150419Z 16010KT 04/01 A3017 RMK A01 T00440009  RH  078%=      5-min Rain = 0
KTR1 150420Z 16010KT 04/01 A3017 RMK A01 T00440008  RH  078%=      5-min Rain = 0
KTR1 150421Z 16011KT 04/01 A3017 RMK A01 T00440008  RH  078%=      5-min Rain = 0
KTR1 150422Z 16010KT 04/01 A3017 RMK A01 T00440008  RH  078%=      5-min Rain = 0
KTR1 150423Z 16010KT 04/01 A3017 RMK A01 T00440008  RH  078%=      5-min Rain = 0
KTR1 150424Z 16011KT 04/01 A3017 RMK A01 T00440008  RH  078%=      5-min Rain = 0
KTR1 150425Z 16011KT 04/01 A3017 RMK A01 T00440009  RH  078%=      5-min Rain = 0
KTR1 150426Z 16011KT 04/01 A3017 RMK A01 T00440008  RH  078%=      5-min Rain = 0
KTR1 150427Z 16011KT 04/01 A3017 RMK A01 T00440008  RH  077%=      5-min Rain = 0
KTR1 150428Z 16010KT 05/01 A3017 RMK A01 T00450008  RH  077%=      5-min Rain = 0
KTR1 150429Z 16010KT 05/01 A3017 RMK A01 T00450008  RH  077%=      5-min Rain = 0
KTR1 150430Z 16010KT 05/01 A3017 RMK A01 T00450008  RH  077%=      5-min Rain = 0
KTR1 150431Z 16010KT 05/01 A3017 RMK A01 T00450009  RH  077%=      5-min Rain = 0
KTR1 150432Z 16009KT 04/01 A3017 RMK A01 T00440009  RH  078%=      5-min Rain = 0
KTR1 150433Z 16010KT 04/01 A3017 RMK A01 T00440008  RH  078%=      5-min Rain = 0
KTR1 150434Z 17010KT 04/01 A3017 RMK A01 T00440008  RH  078%=      5-min Rain = 0
KTR1 150435Z 16009KT 04/01 A3017 RMK A01 T00440008  RH  077%=      5-min Rain = 0
KTR1 150436Z 16009KT 04/01 A3017 RMK A01 T00440008  RH  077%=      5-min Rain = 0
KTR1 150437Z 17009KT 04/01 A3017 RMK A01 T00430008  RH  078%=      5-min Rain = 0
KTR1 150438Z 16009KT 04/01 A3017 RMK A01 T00420008  RH  078%=      5-min Rain = 0
KTR1 150439Z 17009KT 04/01 A3017 RMK A01 T00420007  RH  078%=      5-min Rain = 0
KTR1 150440Z 17009KT 04/01 A3017 RMK A01 T00420007  RH  078%=      5-min Rain = 0
KTR1 150441Z 17010KT 04/01 A3017 RMK A01 T00410007  RH  078%=      5-min Rain = 0
KTR1 150442Z 17010KT 04/01 A3017 RMK A01 T00410007  RH  078%=      5-min Rain = 0
KTR1 150443Z 17009KT 04/01 A3017 RMK A01 T00410007  RH  078%=      5-min Rain = 0
KTR1 150444Z 17010KT 04/01 A3017 RMK A01 T00410007  RH  078%=      5-min Rain = 0
KTR1 150445Z 17010KT 04/01 A3017 RMK A01 T00410007  RH  079%=      5-min Rain = 0
KTR1 150446Z 17010KT 04/01 A3017 RMK A01 T00410007  RH  079%=      5-min Rain = 0
KTR1 150447Z 17011KT 04/01 A3016 RMK A01 T00410007  RH  079%=      5-min Rain = 0
KTR1 150448Z 16010KT 04/01 A3016 RMK A01 T00410007  RH  079%=      5-min Rain = 0
KTR1 150449Z 17011KT 04/01 A3016 RMK A01 T00410008  RH  079%=      5-min Rain = 0
KTR1 150450Z 17010KT 04/01 A3016 RMK A01 T00400008  RH  079%=      5-min Rain = 0
KTR1 150451Z 17010KT 04/01 A3016 RMK A01 T00400007  RH  079%=      5-min Rain = 0
KTR1 150452Z 17010KT 04/01 A3016 RMK A01 T00400008  RH  079%=      5-min Rain = 0
KTR1 150453Z 17010KT 04/01 A3016 RMK A01 T00400008  RH  079%=      5-min Rain = 0
KTR1 150454Z 17010KT 04/01 A3016 RMK A01 T00400008  RH  079%=      5-min Rain = 0
KTR1 150455Z 17010KT 04/01 A3016 RMK A01 T00400008  RH  079%=      5-min Rain = 0
KTR1 150456Z 17010KT 04/01 A3016 RMK A01 T00400008  RH  080%=      5-min Rain = 0
KTR1 150457Z 17010KT 04/01 A3016 RMK A01 T00400008  RH  080%=      5-min Rain = 0
KTR1 150458Z 17009KT 04/01 A3016 RMK A01 T00400008  RH  080%=      5-min Rain = 0
KTR1 150459Z 17010KT 04/01 A3016 RMK A01 T00400008  RH  080%=      5-min Rain = 0
KTR1 150500Z 17010KT 04/01 A3016 RMK A01 T00400008  RH  080%=      5-min Rain = 0
KTR1 150501Z 17009KT 04/01 A3016 RMK A01 T00400008  RH  080%=      5-min Rain = 0
KTR1 150502Z 17009KT 04/01 A3016 RMK A01 T00390008  RH  080%=      5-min Rain = 0
KTR1 150503Z 17010KT 04/01 A3016 RMK A01 T00390007  RH  080%=      5-min Rain = 0
KTR1 150504Z 17009KT 04/01 A3016 RMK A01 T00390007  RH  080%=      5-min Rain = 0
KTR1 150505Z 17010KT 04/01 A3016 RMK A01 T00390007  RH  080%=      5-min Rain = 0
KTR1 150506Z 17009KT 04/01 A3016 RMK A01 T00390007  RH  080%=      5-min Rain = 0
KTR1 150507Z 17009KT 04/01 A3016 RMK A01 T00380008  RH  080%=      5-min Rain = 0
KTR1 150508Z 17009KT 04/01 A3016 RMK A01 T00380008  RH  081%=      5-min Rain = 0
KTR1 150509Z 17009KT 04/01 A3016 RMK A01 T00380008  RH  081%=      5-min Rain = 0
KTR1 150510Z 18009KT 04/01 A3016 RMK A01 T00380008  RH  081%=      5-min Rain = 0
KTR1 150511Z 18009KT 04/01 A3016 RMK A01 T00380007  RH  080%=      5-min Rain = 0
KTR1 150512Z 18008KT 04/01 A3016 RMK A01 T00390007  RH  080%=      5-min Rain = 0
KTR1 150513Z 18009KT 04/01 A3016 RMK A01 T00390007  RH  080%=      5-min Rain = 0
KTR1 150514Z 18009KT 04/01 A3016 RMK A01 T00380008  RH  080%=      5-min Rain = 0
KTR1 150515Z 18009KT 04/01 A3016 RMK A01 T00380007  RH  080%=      5-min Rain = 0
KTR1 150516Z 18009KT 04/01 A3016 RMK A01 T00380007  RH  080%=      5-min Rain = 0
KTR1 150517Z 18010KT 04/01 A3016 RMK A01 T00370007  RH  081%=      5-min Rain = 0
KTR1 150518Z 18009KT 04/01 A3016 RMK A01 T00370007  RH  081%=      5-min Rain = 0
KTR1 150519Z 18010KT 04/01 A3016 RMK A01 T00380007  RH  080%=      5-min Rain = 0
KTR1 150520Z 18010KT 04/01 A3016 RMK A01 T00380007  RH  080%=      5-min Rain = 0
KTR1 150521Z 18010KT 04/01 A3016 RMK A01 T00380007  RH  080%=      5-min Rain = 0
KTR1 150522Z 18010KT 04/01 A3016 RMK A01 T00380007  RH  080%=      5-min Rain = 0
KTR1 150523Z 18010KT 04/01 A3016 RMK A01 T00380007  RH  080%=      5-min Rain = 0
KTR1 150524Z 18009KT 04/01 A3016 RMK A01 T00380007  RH  080%=      5-min Rain = 0
KTR1 150525Z 18010KT 04/01 A3016 RMK A01 T00380007  RH  080%=      5-min Rain = 0
KTR1 150526Z 18010KT 04/01 A3016 RMK A01 T00370007  RH  080%=      5-min Rain = 0
KTR1 150527Z 18009KT 04/01 A3016 RMK A01 T00380007  RH  080%=      5-min Rain = 0
KTR1 150528Z 18009KT 04/01 A3016 RMK A01 T00370007  RH  081%=      5-min Rain = 0
KTR1 150529Z 18010KT 04/01 A3016 RMK A01 T00370007  RH  081%=      5-min Rain = 0
KTR1 150530Z 18009KT 04/01 A3016 RMK A01 T00360006  RH  081%=      5-min Rain = 0
KTR1 150531Z 18009KT 04/01 A3016 RMK A01 T00360007  RH  081%=      5-min Rain = 0
KTR1 150532Z 18009KT 04/01 A3016 RMK A01 T00360007  RH  081%=      5-min Rain = 0
KTR1 150533Z 18010KT 04/01 A3016 RMK A01 T00350006  RH  082%=      5-min Rain = 0
KTR1 150534Z 18010KT 04/01 A3016 RMK A01 T00350007  RH  082%=      5-min Rain = 0
KTR1 150535Z 18011KT 04/01 A3016 RMK A01 T00350007  RH  082%=      5-min Rain = 0
KTR1 150536Z 18011KT 04/01 A3015 RMK A01 T00350007  RH  082%=      5-min Rain = 0
KTR1 150537Z 18011KT 04/01 A3015 RMK A01 T00350007  RH  081%=      5-min Rain = 0
KTR1 150538Z 18012KT 04/01 A3015 RMK A01 T00360007  RH  081%=      5-min Rain = 0
KTR1 150539Z 18012KT 04/01 A3015 RMK A01 T00370006  RH  081%=      5-min Rain = 0
KTR1 150540Z 18012KT 04/01 A3015 RMK A01 T00370006  RH  080%=      5-min Rain = 0
KTR1 150541Z 18012KT 04/01 A3015 RMK A01 T00370007  RH  080%=      5-min Rain = 0
KTR1 150542Z 18013KT 04/01 A3015 RMK A01 T00370007  RH  080%=      5-min Rain = 0
KTR1 150543Z 18013KT 04/01 A3015 RMK A01 T00370007  RH  080%=      5-min Rain = 0
KTR1 150544Z 18013KT 04/01 A3015 RMK A01 T00370006  RH  080%=      5-min Rain = 0
KTR1 150545Z 18013KT 04/01 A3015 RMK A01 T00380006  RH  080%=      5-min Rain = 0
KTR1 150546Z 18013KT 04/01 A3015 RMK A01 T00380007  RH  080%=      5-min Rain = 0
KTR1 150547Z 18013KT 04/01 A3015 RMK A01 T00380006  RH  080%=      5-min Rain = 0
KTR1 150548Z 18012KT 04/01 A3015 RMK A01 T00380007  RH  080%=      5-min Rain = 0
KTR1 150549Z 18013KT 04/01 A3015 RMK A01 T00380007  RH  080%=      5-min Rain = 0
KTR1 150550Z 18012KT 04/01 A3015 RMK A01 T00380007  RH  080%=      5-min Rain = 0
KTR1 150551Z 18012KT 04/01 A3015 RMK A01 T00380007  RH  080%=      5-min Rain = 0
KTR1 150552Z 18014KT 04/01 A3015 RMK A01 T00380007  RH  080%=      5-min Rain = 0
KTR1 150553Z 18013KT 04/01 A3015 RMK A01 T00380007  RH  080%=      5-min Rain = 0
KTR1 150554Z 18014KT 04/01 A3015 RMK A01 T00380007  RH  080%=      5-min Rain = 0
KTR1 150555Z 18014KT 04/01 A3015 RMK A01 T00380007  RH  080%=      5-min Rain = 0
KTR1 150556Z 18014KT 04/01 A3015 RMK A01 T00390008  RH  080%=      5-min Rain = 0
KTR1 150557Z 18013KT 04/01 A3014 RMK A01 T00400008  RH  079%=      5-min Rain = 0
KTR1 150558Z 18014KT 04/01 A3014 RMK A01 T00410008  RH  079%=      5-min Rain = 0
KTR1 150559Z 18013KT 04/01 A3014 RMK A01 T00410008  RH  079%=      5-min Rain = 0

Page generated in 0.1593 seconds.